| State | Oklahoma | Latest | Poor (87 cfs) | |
| River | Glover River | Rating | Observed | Estimated |
| Updated | 2026-05-05 8:30 (49 minutes ago) | Flood - The river is flooding. Obstacles can be treacherous or deadly. The river should be avoided at this stage for casual trips and definitely for the inexperienced. Trips should be attempted only with protective gear and equipment.Flood | (none) | 2227 |
| Discharge | 87 cfs (median: 351 cfs) | High - The river is high and potentially dangerous, especially for the young and / or inexperienced. Normal stream obstacles are sometimes difficult to navigate. Extended distances can be attempted, but canoe travel may not be advisable.High | (none) | 749 |
| Height | 3.03 feet | Good - Conditions are ideal for a canoe or kayak. Boats typically will drag on fewer than one-quarter of riffles, if at all, and portages are unnecessary or rare. Normal float lengths can be attempted without a problem.Good | 100 | 271 |
| Trend | Steady (falling over 24 hours) | Low - River is low but can still be floated. Some riffles are okay but most come with significant dragging and might need a portage. Float lengths should be reduced to accommodate low flow, dragging, and portages.Low | (none) | 98 |
| USGS | USGS Site ( Duck Duck Go Maps) | Poor - River is too low to float comfortably. Most or all riffles will drag or must be portaged and some obstacles (such as slick shelf rock) cause undue problems. Avoid the river at this stage for casual paddling trips.Poor | (none) | 8 |
A total of 1 rows are displayed.
| Miles | 4.8 |
| Trips | 1 |
| People | 3 |
| Dates | 1 |
| Years | 1 |
| Months | 1 |
| Rows | 1 |
| Sources | 1 |
BLG - Bluegill
CCF - Channel Catfish
CP - Chain Pickerel
FWD - Freshwater Drum
GSF - Green Sunfish
KSB - Kentucky Spotted Bass
LMB - Largemouth Bass
LSF - Longear Sunfish
RB - Rock Bass / Goggle Eye
RSF - Redear Sunfish
RT - Rainbow Trout
SMB - Smallmouth Bass
WB - White Bass
WF - Whitefish
WL - WalleyeThe classic River Trips application is still available for use. It is updated with the new system using a data retrofit. It is no longer maintained. The original River Trips application is no longer updated (as of 1 Dec 2016) but can be checked for errors or for the condition of the data before it was converted to the new system.
| Observation | Height | Discharge | Maximum Discharge | Minimum Discharge | Mean Discharge | P05 | P10 | P20 | P25 | P50 (Median) | P75 | P80 | P90 | P95 |
|---|---|---|---|---|---|---|---|---|---|---|---|---|---|---|
| 2026-05-05 08:30 | 3.03 | 87 | 4590 (1991) | 18 (1987) | 735 | 47 | 61 | 91 | 147 | 351 | 1070 | 1180 | 1980 | 3350 |
| 2026-05-05 07:30 | 3.03 | 87 | 4590 (1991) | 18 (1987) | 735 | 47 | 61 | 91 | 147 | 351 | 1070 | 1180 | 1980 | 3350 |
| 2026-05-05 06:30 | 3.02 | 86 | 4590 (1991) | 18 (1987) | 735 | 47 | 61 | 91 | 147 | 351 | 1070 | 1180 | 1980 | 3350 |
| 2026-05-05 05:30 | 3.03 | 87 | 4590 (1991) | 18 (1987) | 735 | 47 | 61 | 91 | 147 | 351 | 1070 | 1180 | 1980 | 3350 |
| 2026-05-05 04:30 | 3.06 | 91 | 4590 (1991) | 18 (1987) | 735 | 47 | 61 | 91 | 147 | 351 | 1070 | 1180 | 1980 | 3350 |
| 2026-05-05 03:30 | 3.07 | 92 | 4590 (1991) | 18 (1987) | 735 | 47 | 61 | 91 | 147 | 351 | 1070 | 1180 | 1980 | 3350 |
| 2026-05-05 02:30 | 3.08 | 93 | 4590 (1991) | 18 (1987) | 735 | 47 | 61 | 91 | 147 | 351 | 1070 | 1180 | 1980 | 3350 |
| 2026-05-05 01:30 | 3.08 | 93 | 4590 (1991) | 18 (1987) | 735 | 47 | 61 | 91 | 147 | 351 | 1070 | 1180 | 1980 | 3350 |
| 2026-05-05 00:30 | 3.09 | 95 | 4590 (1991) | 18 (1987) | 735 | 47 | 61 | 91 | 147 | 351 | 1070 | 1180 | 1980 | 3350 |
| 2026-05-04 23:30 | 3.07 | 92 | 4590 (1991) | 18 (1987) | 735 | 47 | 61 | 91 | 147 | 351 | 1070 | 1180 | 1980 | 3350 |
| 2026-05-04 22:30 | 3.08 | 93 | 7840 (1990) | 19 (1987) | 898 | 46 | 66 | 109 | 167 | 352 | 1160 | 1430 | 2210 | 3090 |
| 2026-05-04 21:30 | 3.10 | 96 | 7840 (1990) | 19 (1987) | 898 | 46 | 66 | 109 | 167 | 352 | 1160 | 1430 | 2210 | 3090 |
| 2026-05-04 20:30 | 3.10 | 96 | 7840 (1990) | 19 (1987) | 898 | 46 | 66 | 109 | 167 | 352 | 1160 | 1430 | 2210 | 3090 |
| 2026-05-04 19:30 | 3.15 | 103 | 7840 (1990) | 19 (1987) | 898 | 46 | 66 | 109 | 167 | 352 | 1160 | 1430 | 2210 | 3090 |
| 2026-05-04 18:30 | 3.13 | 100 | 7840 (1990) | 19 (1987) | 898 | 46 | 66 | 109 | 167 | 352 | 1160 | 1430 | 2210 | 3090 |
| 2026-05-04 17:30 | 3.14 | 101 | 7840 (1990) | 19 (1987) | 898 | 46 | 66 | 109 | 167 | 352 | 1160 | 1430 | 2210 | 3090 |
| 2026-05-04 16:30 | 3.16 | 104 | 7840 (1990) | 19 (1987) | 898 | 46 | 66 | 109 | 167 | 352 | 1160 | 1430 | 2210 | 3090 |
| 2026-05-04 15:30 | 3.16 | 104 | 7840 (1990) | 19 (1987) | 898 | 46 | 66 | 109 | 167 | 352 | 1160 | 1430 | 2210 | 3090 |
| 2026-05-04 14:30 | 3.17 | 106 | 7840 (1990) | 19 (1987) | 898 | 46 | 66 | 109 | 167 | 352 | 1160 | 1430 | 2210 | 3090 |
| 2026-05-04 13:30 | 3.19 | 108 | 7840 (1990) | 19 (1987) | 898 | 46 | 66 | 109 | 167 | 352 | 1160 | 1430 | 2210 | 3090 |
| 2026-05-04 12:30 | 3.19 | 108 | 7840 (1990) | 19 (1987) | 898 | 46 | 66 | 109 | 167 | 352 | 1160 | 1430 | 2210 | 3090 |
| 2026-05-04 11:30 | 3.17 | 106 | 7840 (1990) | 19 (1987) | 898 | 46 | 66 | 109 | 167 | 352 | 1160 | 1430 | 2210 | 3090 |
| 2026-05-04 10:30 | 3.24 | 116 | 7840 (1990) | 19 (1987) | 898 | 46 | 66 | 109 | 167 | 352 | 1160 | 1430 | 2210 | 3090 |
| 2026-05-04 09:30 | 3.22 | 113 | 7840 (1990) | 19 (1987) | 898 | 46 | 66 | 109 | 167 | 352 | 1160 | 1430 | 2210 | 3090 |
| 2026-05-04 08:30 | 3.23 | 114 | 7840 (1990) | 19 (1987) | 898 | 46 | 66 | 109 | 167 | 352 | 1160 | 1430 | 2210 | 3090 |
| 2026-05-04 07:30 | 3.22 | 113 | 7840 (1990) | 19 (1987) | 898 | 46 | 66 | 109 | 167 | 352 | 1160 | 1430 | 2210 | 3090 |
| 2026-05-04 06:30 | 3.24 | 116 | 7840 (1990) | 19 (1987) | 898 | 46 | 66 | 109 | 167 | 352 | 1160 | 1430 | 2210 | 3090 |
| 2026-05-04 05:30 | 3.22 | 113 | 7840 (1990) | 19 (1987) | 898 | 46 | 66 | 109 | 167 | 352 | 1160 | 1430 | 2210 | 3090 |
| 2026-05-04 04:30 | 3.26 | 119 | 7840 (1990) | 19 (1987) | 898 | 46 | 66 | 109 | 167 | 352 | 1160 | 1430 | 2210 | 3090 |
| 2026-05-04 03:30 | 3.24 | 116 | 7840 (1990) | 19 (1987) | 898 | 46 | 66 | 109 | 167 | 352 | 1160 | 1430 | 2210 | 3090 |
| 2026-05-04 02:30 | 3.25 | 117 | 7840 (1990) | 19 (1987) | 898 | 46 | 66 | 109 | 167 | 352 | 1160 | 1430 | 2210 | 3090 |
| 2026-05-04 01:30 | 3.27 | 120 | 7840 (1990) | 19 (1987) | 898 | 46 | 66 | 109 | 167 | 352 | 1160 | 1430 | 2210 | 3090 |
| 2026-05-04 00:30 | 3.29 | 123 | 7840 (1990) | 19 (1987) | 898 | 46 | 66 | 109 | 167 | 352 | 1160 | 1430 | 2210 | 3090 |
| 2026-05-03 23:30 | 3.29 | 123 | 7840 (1990) | 19 (1987) | 898 | 46 | 66 | 109 | 167 | 352 | 1160 | 1430 | 2210 | 3090 |
| 2026-05-03 22:30 | 3.31 | 126 | 36000 (1990) | 20 (1987) | 1920 | 50 | 75 | 123 | 175 | 374 | 1220 | 1690 | 6110 | 8440 |
| 2026-05-03 21:30 | 3.33 | 129 | 36000 (1990) | 20 (1987) | 1920 | 50 | 75 | 123 | 175 | 374 | 1220 | 1690 | 6110 | 8440 |
| 2026-05-03 20:30 | 3.28 | 122 | 36000 (1990) | 20 (1987) | 1920 | 50 | 75 | 123 | 175 | 374 | 1220 | 1690 | 6110 | 8440 |
| 2026-05-03 19:30 | 3.34 | 131 | 36000 (1990) | 20 (1987) | 1920 | 50 | 75 | 123 | 175 | 374 | 1220 | 1690 | 6110 | 8440 |
| 2026-05-03 18:30 | 3.34 | 131 | 36000 (1990) | 20 (1987) | 1920 | 50 | 75 | 123 | 175 | 374 | 1220 | 1690 | 6110 | 8440 |
| 2026-05-03 16:30 | 3.36 | 134 | 36000 (1990) | 20 (1987) | 1920 | 50 | 75 | 123 | 175 | 374 | 1220 | 1690 | 6110 | 8440 |
| 2026-05-03 15:30 | 3.41 | 142 | 36000 (1990) | 20 (1987) | 1920 | 50 | 75 | 123 | 175 | 374 | 1220 | 1690 | 6110 | 8440 |
| 2026-05-03 14:30 | 3.40 | 141 | 36000 (1990) | 20 (1987) | 1920 | 50 | 75 | 123 | 175 | 374 | 1220 | 1690 | 6110 | 8440 |
| 2026-05-03 13:30 | 3.38 | 137 | 36000 (1990) | 20 (1987) | 1920 | 50 | 75 | 123 | 175 | 374 | 1220 | 1690 | 6110 | 8440 |
| 2026-05-03 12:30 | 3.41 | 142 | 36000 (1990) | 20 (1987) | 1920 | 50 | 75 | 123 | 175 | 374 | 1220 | 1690 | 6110 | 8440 |
| 2026-05-03 11:30 | 3.43 | 146 | 36000 (1990) | 20 (1987) | 1920 | 50 | 75 | 123 | 175 | 374 | 1220 | 1690 | 6110 | 8440 |
| 2026-05-03 10:30 | 3.44 | 147 | 36000 (1990) | 20 (1987) | 1920 | 50 | 75 | 123 | 175 | 374 | 1220 | 1690 | 6110 | 8440 |
| 2026-05-03 09:30 | 3.46 | 151 | 36000 (1990) | 20 (1987) | 1920 | 50 | 75 | 123 | 175 | 374 | 1220 | 1690 | 6110 | 8440 |
| 2026-05-03 08:30 | 3.46 | 151 | 36000 (1990) | 20 (1987) | 1920 | 50 | 75 | 123 | 175 | 374 | 1220 | 1690 | 6110 | 8440 |
| 2026-05-03 07:30 | 3.46 | 151 | 36000 (1990) | 20 (1987) | 1920 | 50 | 75 | 123 | 175 | 374 | 1220 | 1690 | 6110 | 8440 |
| 2026-05-03 06:30 | 3.49 | 156 | 36000 (1990) | 20 (1987) | 1920 | 50 | 75 | 123 | 175 | 374 | 1220 | 1690 | 6110 | 8440 |
| 2026-05-03 05:30 | 3.51 | 159 | 36000 (1990) | 20 (1987) | 1920 | 50 | 75 | 123 | 175 | 374 | 1220 | 1690 | 6110 | 8440 |
| 2026-05-03 04:30 | 3.46 | 151 | 36000 (1990) | 20 (1987) | 1920 | 50 | 75 | 123 | 175 | 374 | 1220 | 1690 | 6110 | 8440 |
| 2026-05-02 21:30 | 3.57 | 173 | 17300 (1990) | 21 (1987) | 1500 | 53 | 75 | 123 | 195 | 422 | 1010 | 1350 | 3710 | 11600 |
| 2026-05-02 20:30 | 3.58 | 176 | 17300 (1990) | 21 (1987) | 1500 | 53 | 75 | 123 | 195 | 422 | 1010 | 1350 | 3710 | 11600 |
| 2026-05-02 19:30 | 3.57 | 173 | 17300 (1990) | 21 (1987) | 1500 | 53 | 75 | 123 | 195 | 422 | 1010 | 1350 | 3710 | 11600 |
| 2026-05-02 18:30 | 3.61 | 184 | 17300 (1990) | 21 (1987) | 1500 | 53 | 75 | 123 | 195 | 422 | 1010 | 1350 | 3710 | 11600 |
| 2026-05-02 17:30 | 3.60 | 181 | 17300 (1990) | 21 (1987) | 1500 | 53 | 75 | 123 | 195 | 422 | 1010 | 1350 | 3710 | 11600 |
| 2026-05-02 16:30 | 3.64 | 192 | 17300 (1990) | 21 (1987) | 1500 | 53 | 75 | 123 | 195 | 422 | 1010 | 1350 | 3710 | 11600 |
| 2026-05-02 15:30 | 3.63 | 189 | 17300 (1990) | 21 (1987) | 1500 | 53 | 75 | 123 | 195 | 422 | 1010 | 1350 | 3710 | 11600 |
| 2026-05-02 14:30 | 3.66 | 198 | 17300 (1990) | 21 (1987) | 1500 | 53 | 75 | 123 | 195 | 422 | 1010 | 1350 | 3710 | 11600 |
| 2026-05-02 13:30 | 3.66 | 198 | 17300 (1990) | 21 (1987) | 1500 | 53 | 75 | 123 | 195 | 422 | 1010 | 1350 | 3710 | 11600 |
| 2026-05-02 12:30 | 3.67 | 201 | 17300 (1990) | 21 (1987) | 1500 | 53 | 75 | 123 | 195 | 422 | 1010 | 1350 | 3710 | 11600 |
| 2026-05-02 11:30 | 3.70 | 210 | 17300 (1990) | 21 (1987) | 1500 | 53 | 75 | 123 | 195 | 422 | 1010 | 1350 | 3710 | 11600 |
| 2026-05-02 10:30 | 3.67 | 201 | 17300 (1990) | 21 (1987) | 1500 | 53 | 75 | 123 | 195 | 422 | 1010 | 1350 | 3710 | 11600 |
| 2026-05-02 09:30 | 3.75 | 226 | 17300 (1990) | 21 (1987) | 1500 | 53 | 75 | 123 | 195 | 422 | 1010 | 1350 | 3710 | 11600 |
| 2026-05-02 08:30 | 3.76 | 229 | 17300 (1990) | 21 (1987) | 1500 | 53 | 75 | 123 | 195 | 422 | 1010 | 1350 | 3710 | 11600 |
| 2026-05-02 07:30 | 3.79 | 239 | 17300 (1990) | 21 (1987) | 1500 | 53 | 75 | 123 | 195 | 422 | 1010 | 1350 | 3710 | 11600 |
| 2026-05-02 06:30 | 3.79 | 239 | 17300 (1990) | 21 (1987) | 1500 | 53 | 75 | 123 | 195 | 422 | 1010 | 1350 | 3710 | 11600 |
| 2026-05-02 05:30 | 3.80 | 243 | 17300 (1990) | 21 (1987) | 1500 | 53 | 75 | 123 | 195 | 422 | 1010 | 1350 | 3710 | 11600 |
| 2026-05-02 04:30 | 3.81 | 246 | 17300 (1990) | 21 (1987) | 1500 | 53 | 75 | 123 | 195 | 422 | 1010 | 1350 | 3710 | 11600 |
| 2026-05-02 03:30 | 3.79 | 239 | 17300 (1990) | 21 (1987) | 1500 | 53 | 75 | 123 | 195 | 422 | 1010 | 1350 | 3710 | 11600 |
| 2026-05-02 02:30 | 3.84 | 257 | 17300 (1990) | 21 (1987) | 1500 | 53 | 75 | 123 | 195 | 422 | 1010 | 1350 | 3710 | 11600 |
| 2026-05-02 01:30 | 3.84 | 257 | 17300 (1990) | 21 (1987) | 1500 | 53 | 75 | 123 | 195 | 422 | 1010 | 1350 | 3710 | 11600 |
| 2026-05-02 00:30 | 3.87 | 267 | 17300 (1990) | 21 (1987) | 1500 | 53 | 75 | 123 | 195 | 422 | 1010 | 1350 | 3710 | 11600 |
| 2026-05-01 23:30 | 3.85 | 260 | 17300 (1990) | 21 (1987) | 1500 | 53 | 75 | 123 | 195 | 422 | 1010 | 1350 | 3710 | 11600 |
| 2026-05-01 22:30 | 3.88 | 271 | 13200 (2019) | 23 (1987) | 1060 | 59 | 77 | 137 | 174 | 406 | 1190 | 1540 | 2350 | 4160 |
| 2026-05-01 21:30 | 3.89 | 275 | 13200 (2019) | 23 (1987) | 1060 | 59 | 77 | 137 | 174 | 406 | 1190 | 1540 | 2350 | 4160 |
| 2026-05-01 19:30 | 3.90 | 278 | 13200 (2019) | 23 (1987) | 1060 | 59 | 77 | 137 | 174 | 406 | 1190 | 1540 | 2350 | 4160 |
| 2026-05-01 18:30 | 3.91 | 282 | 13200 (2019) | 23 (1987) | 1060 | 59 | 77 | 137 | 174 | 406 | 1190 | 1540 | 2350 | 4160 |
| 2026-05-01 17:30 | 3.94 | 294 | 13200 (2019) | 23 (1987) | 1060 | 59 | 77 | 137 | 174 | 406 | 1190 | 1540 | 2350 | 4160 |
| 2026-05-01 16:30 | 3.97 | 305 | 13200 (2019) | 23 (1987) | 1060 | 59 | 77 | 137 | 174 | 406 | 1190 | 1540 | 2350 | 4160 |
| 2026-05-01 15:30 | 3.98 | 309 | 13200 (2019) | 23 (1987) | 1060 | 59 | 77 | 137 | 174 | 406 | 1190 | 1540 | 2350 | 4160 |
| 2026-05-01 14:30 | 3.99 | 313 | 13200 (2019) | 23 (1987) | 1060 | 59 | 77 | 137 | 174 | 406 | 1190 | 1540 | 2350 | 4160 |
| 2026-05-01 13:30 | 3.99 | 313 | 13200 (2019) | 23 (1987) | 1060 | 59 | 77 | 137 | 174 | 406 | 1190 | 1540 | 2350 | 4160 |
| 2026-05-01 12:30 | 4.00 | 317 | 13200 (2019) | 23 (1987) | 1060 | 59 | 77 | 137 | 174 | 406 | 1190 | 1540 | 2350 | 4160 |
| 2026-05-01 11:30 | 4.03 | 330 | 13200 (2019) | 23 (1987) | 1060 | 59 | 77 | 137 | 174 | 406 | 1190 | 1540 | 2350 | 4160 |
| 2026-05-01 10:30 | 4.04 | 334 | 13200 (2019) | 23 (1987) | 1060 | 59 | 77 | 137 | 174 | 406 | 1190 | 1540 | 2350 | 4160 |
| 2026-05-01 09:30 | 4.04 | 334 | 13200 (2019) | 23 (1987) | 1060 | 59 | 77 | 137 | 174 | 406 | 1190 | 1540 | 2350 | 4160 |
| 2026-05-01 08:30 | 4.03 | 330 | 13200 (2019) | 23 (1987) | 1060 | 59 | 77 | 137 | 174 | 406 | 1190 | 1540 | 2350 | 4160 |
| 2026-05-01 07:30 | 4.03 | 330 | 13200 (2019) | 23 (1987) | 1060 | 59 | 77 | 137 | 174 | 406 | 1190 | 1540 | 2350 | 4160 |
| 2026-05-01 06:30 | 4.05 | 338 | 13200 (2019) | 23 (1987) | 1060 | 59 | 77 | 137 | 174 | 406 | 1190 | 1540 | 2350 | 4160 |
| 2026-05-01 05:30 | 4.06 | 343 | 13200 (2019) | 23 (1987) | 1060 | 59 | 77 | 137 | 174 | 406 | 1190 | 1540 | 2350 | 4160 |
| 2026-05-01 04:30 | 4.08 | 351 | 13200 (2019) | 23 (1987) | 1060 | 59 | 77 | 137 | 174 | 406 | 1190 | 1540 | 2350 | 4160 |
| 2026-05-01 03:30 | 4.08 | 351 | 13200 (2019) | 23 (1987) | 1060 | 59 | 77 | 137 | 174 | 406 | 1190 | 1540 | 2350 | 4160 |
| 2026-05-01 02:30 | 4.09 | 356 | 13200 (2019) | 23 (1987) | 1060 | 59 | 77 | 137 | 174 | 406 | 1190 | 1540 | 2350 | 4160 |
| 2026-05-01 01:30 | 4.08 | 351 | 13200 (2019) | 23 (1987) | 1060 | 59 | 77 | 137 | 174 | 406 | 1190 | 1540 | 2350 | 4160 |
| 2026-05-01 00:30 | 4.12 | 369 | 13200 (2019) | 23 (1987) | 1060 | 59 | 77 | 137 | 174 | 406 | 1190 | 1540 | 2350 | 4160 |
| 2026-04-30 23:30 | 4.14 | 378 | 13200 (2019) | 23 (1987) | 1060 | 59 | 77 | 137 | 174 | 406 | 1190 | 1540 | 2350 | 4160 |
| 2026-04-30 22:30 | 4.15 | 382 | 8880 (2016) | 25 (1987) | 943 | 66 | 86 | 146 | 175 | 371 | 786 | 983 | 2600 | 5080 |
| 2026-04-30 21:30 | 4.18 | 396 | 8880 (2016) | 25 (1987) | 943 | 66 | 86 | 146 | 175 | 371 | 786 | 983 | 2600 | 5080 |
| 2026-04-30 20:30 | 4.19 | 401 | 8880 (2016) | 25 (1987) | 943 | 66 | 86 | 146 | 175 | 371 | 786 | 983 | 2600 | 5080 |
| 2026-04-30 19:30 | 4.19 | 401 | 8880 (2016) | 25 (1987) | 943 | 66 | 86 | 146 | 175 | 371 | 786 | 983 | 2600 | 5080 |
| 2026-04-30 18:30 | 4.21 | 410 | 8880 (2016) | 25 (1987) | 943 | 66 | 86 | 146 | 175 | 371 | 786 | 983 | 2600 | 5080 |
| 2026-04-30 17:30 | 4.23 | 420 | 8880 (2016) | 25 (1987) | 943 | 66 | 86 | 146 | 175 | 371 | 786 | 983 | 2600 | 5080 |
| 2026-04-30 16:30 | 4.28 | 444 | 8880 (2016) | 25 (1987) | 943 | 66 | 86 | 146 | 175 | 371 | 786 | 983 | 2600 | 5080 |
| 2026-04-30 15:30 | 4.26 | 434 | 8880 (2016) | 25 (1987) | 943 | 66 | 86 | 146 | 175 | 371 | 786 | 983 | 2600 | 5080 |
| 2026-04-30 14:30 | 4.30 | 454 | 8880 (2016) | 25 (1987) | 943 | 66 | 86 | 146 | 175 | 371 | 786 | 983 | 2600 | 5080 |
| 2026-04-30 13:30 | 4.30 | 454 | 8880 (2016) | 25 (1987) | 943 | 66 | 86 | 146 | 175 | 371 | 786 | 983 | 2600 | 5080 |
| 2026-04-30 12:30 | 4.31 | 459 | 8880 (2016) | 25 (1987) | 943 | 66 | 86 | 146 | 175 | 371 | 786 | 983 | 2600 | 5080 |
| 2026-04-30 11:30 | 4.34 | 475 | 8880 (2016) | 25 (1987) | 943 | 66 | 86 | 146 | 175 | 371 | 786 | 983 | 2600 | 5080 |
| 2026-04-30 10:30 | 4.35 | 480 | 8880 (2016) | 25 (1987) | 943 | 66 | 86 | 146 | 175 | 371 | 786 | 983 | 2600 | 5080 |
| 2026-04-30 09:30 | 4.37 | 491 | 8880 (2016) | 25 (1987) | 943 | 66 | 86 | 146 | 175 | 371 | 786 | 983 | 2600 | 5080 |
| 2026-04-30 08:30 | 4.40 | 507 | 8880 (2016) | 25 (1987) | 943 | 66 | 86 | 146 | 175 | 371 | 786 | 983 | 2600 | 5080 |
| 2026-04-30 07:30 | 4.40 | 507 | 8880 (2016) | 25 (1987) | 943 | 66 | 86 | 146 | 175 | 371 | 786 | 983 | 2600 | 5080 |
| 2026-04-30 06:30 | 4.42 | 518 | 8880 (2016) | 25 (1987) | 943 | 66 | 86 | 146 | 175 | 371 | 786 | 983 | 2600 | 5080 |
| 2026-04-30 05:30 | 4.43 | 524 | 8880 (2016) | 25 (1987) | 943 | 66 | 86 | 146 | 175 | 371 | 786 | 983 | 2600 | 5080 |
| 2026-04-30 04:30 | 4.46 | 541 | 8880 (2016) | 25 (1987) | 943 | 66 | 86 | 146 | 175 | 371 | 786 | 983 | 2600 | 5080 |
| 2026-04-30 03:30 | 4.49 | 558 | 8880 (2016) | 25 (1987) | 943 | 66 | 86 | 146 | 175 | 371 | 786 | 983 | 2600 | 5080 |
| 2026-04-30 02:30 | 4.52 | 576 | 8880 (2016) | 25 (1987) | 943 | 66 | 86 | 146 | 175 | 371 | 786 | 983 | 2600 | 5080 |
| 2026-04-30 01:30 | 4.55 | 594 | 8880 (2016) | 25 (1987) | 943 | 66 | 86 | 146 | 175 | 371 | 786 | 983 | 2600 | 5080 |
| 2026-04-30 00:30 | 4.55 | 594 | 8880 (2016) | 25 (1987) | 943 | 66 | 86 | 146 | 175 | 371 | 786 | 983 | 2600 | 5080 |
| 2026-04-29 23:30 | 4.60 | 625 | 8880 (2016) | 25 (1987) | 943 | 66 | 86 | 146 | 175 | 371 | 786 | 983 | 2600 | 5080 |
| 2026-04-29 22:30 | 4.64 | 650 | 14300 (2021) | 29 (1987) | 1060 | 56 | 91 | 139 | 172 | 397 | 920 | 1270 | 2770 | 5220 |
| 2026-04-29 21:30 | 4.66 | 663 | 14300 (2021) | 29 (1987) | 1060 | 56 | 91 | 139 | 172 | 397 | 920 | 1270 | 2770 | 5220 |
| 2026-04-29 20:30 | 4.73 | 710 | 14300 (2021) | 29 (1987) | 1060 | 56 | 91 | 139 | 172 | 397 | 920 | 1270 | 2770 | 5220 |
| 2026-04-29 19:30 | 4.76 | 731 | 14300 (2021) | 29 (1987) | 1060 | 56 | 91 | 139 | 172 | 397 | 920 | 1270 | 2770 | 5220 |
| 2026-04-29 18:30 | 4.79 | 752 | 14300 (2021) | 29 (1987) | 1060 | 56 | 91 | 139 | 172 | 397 | 920 | 1270 | 2770 | 5220 |
| 2026-04-29 17:30 | 4.72 | 704 | 14300 (2021) | 29 (1987) | 1060 | 56 | 91 | 139 | 172 | 397 | 920 | 1270 | 2770 | 5220 |
| 2026-04-29 16:30 | 4.90 | 831 | 14300 (2021) | 29 (1987) | 1060 | 56 | 91 | 139 | 172 | 397 | 920 | 1270 | 2770 | 5220 |
| 2026-04-29 15:30 | 4.93 | 851 | 14300 (2021) | 29 (1987) | 1060 | 56 | 91 | 139 | 172 | 397 | 920 | 1270 | 2770 | 5220 |
| 2026-04-29 14:30 | 4.98 | 885 | 14300 (2021) | 29 (1987) | 1060 | 56 | 91 | 139 | 172 | 397 | 920 | 1270 | 2770 | 5220 |
| 2026-04-29 13:30 | 5.06 | 948 | 14300 (2021) | 29 (1987) | 1060 | 56 | 91 | 139 | 172 | 397 | 920 | 1270 | 2770 | 5220 |
| 2026-04-29 12:30 | 5.08 | 964 | 14300 (2021) | 29 (1987) | 1060 | 56 | 91 | 139 | 172 | 397 | 920 | 1270 | 2770 | 5220 |
| 2026-04-29 11:30 | 5.13 | 1010 | 14300 (2021) | 29 (1987) | 1060 | 56 | 91 | 139 | 172 | 397 | 920 | 1270 | 2770 | 5220 |
| 2026-04-29 10:30 | 5.17 | 1040 | 14300 (2021) | 29 (1987) | 1060 | 56 | 91 | 139 | 172 | 397 | 920 | 1270 | 2770 | 5220 |
| 2026-04-29 09:30 | 5.20 | 1070 | 14300 (2021) | 29 (1987) | 1060 | 56 | 91 | 139 | 172 | 397 | 920 | 1270 | 2770 | 5220 |
| 2026-04-29 08:30 | 5.20 | 1070 | 14300 (2021) | 29 (1987) | 1060 | 56 | 91 | 139 | 172 | 397 | 920 | 1270 | 2770 | 5220 |
| 2026-04-29 07:30 | 5.21 | 1080 | 14300 (2021) | 29 (1987) | 1060 | 56 | 91 | 139 | 172 | 397 | 920 | 1270 | 2770 | 5220 |
| 2026-04-29 06:30 | 5.25 | 1110 | 14300 (2021) | 29 (1987) | 1060 | 56 | 91 | 139 | 172 | 397 | 920 | 1270 | 2770 | 5220 |
| 2026-04-29 05:30 | 5.31 | 1170 | 14300 (2021) | 29 (1987) | 1060 | 56 | 91 | 139 | 172 | 397 | 920 | 1270 | 2770 | 5220 |
| 2026-04-29 04:30 | 5.35 | 1210 | 14300 (2021) | 29 (1987) | 1060 | 56 | 91 | 139 | 172 | 397 | 920 | 1270 | 2770 | 5220 |
| 2026-04-29 03:30 | 5.42 | 1280 | 14300 (2021) | 29 (1987) | 1060 | 56 | 91 | 139 | 172 | 397 | 920 | 1270 | 2770 | 5220 |
| 2026-04-29 02:30 | 5.54 | 1400 | 14300 (2021) | 29 (1987) | 1060 | 56 | 91 | 139 | 172 | 397 | 920 | 1270 | 2770 | 5220 |
| 2026-04-29 01:30 | 5.59 | 1450 | 14300 (2021) | 29 (1987) | 1060 | 56 | 91 | 139 | 172 | 397 | 920 | 1270 | 2770 | 5220 |
| 2026-04-29 00:30 | 5.56 | 1420 | 14300 (2021) | 29 (1987) | 1060 | 56 | 91 | 139 | 172 | 397 | 920 | 1270 | 2770 | 5220 |
| 2026-04-28 23:30 | 5.42 | 1280 | 14300 (2021) | 29 (1987) | 1060 | 56 | 91 | 139 | 172 | 397 | 920 | 1270 | 2770 | 5220 |
| 2026-04-28 22:30 | 5.22 | 1090 | 4080 (1963) | 31 (1987) | 722 | 57 | 100 | 151 | 184 | 419 | 795 | 1090 | 1760 | 3230 |
| 2026-04-28 21:30 | 4.95 | 864 | 4080 (1963) | 31 (1987) | 722 | 57 | 100 | 151 | 184 | 419 | 795 | 1090 | 1760 | 3230 |
| 2026-04-28 20:30 | 4.49 | 558 | 4080 (1963) | 31 (1987) | 722 | 57 | 100 | 151 | 184 | 419 | 795 | 1090 | 1760 | 3230 |
| 2026-04-28 19:30 | 4.28 | 444 | 4080 (1963) | 31 (1987) | 722 | 57 | 100 | 151 | 184 | 419 | 795 | 1090 | 1760 | 3230 |
| 2026-04-28 18:30 | 4.11 | 365 | 4080 (1963) | 31 (1987) | 722 | 57 | 100 | 151 | 184 | 419 | 795 | 1090 | 1760 | 3230 |
| 2026-04-28 17:30 | 3.95 | 297 | 4080 (1963) | 31 (1987) | 722 | 57 | 100 | 151 | 184 | 419 | 795 | 1090 | 1760 | 3230 |
| 2026-04-28 16:30 | 3.94 | 294 | 4080 (1963) | 31 (1987) | 722 | 57 | 100 | 151 | 184 | 419 | 795 | 1090 | 1760 | 3230 |
| 2026-04-28 15:30 | 3.96 | 301 | 4080 (1963) | 31 (1987) | 722 | 57 | 100 | 151 | 184 | 419 | 795 | 1090 | 1760 | 3230 |
| 2026-04-28 14:30 | 3.98 | 309 | 4080 (1963) | 31 (1987) | 722 | 57 | 100 | 151 | 184 | 419 | 795 | 1090 | 1760 | 3230 |
| 2026-04-28 13:30 | 4.01 | 321 | 4080 (1963) | 31 (1987) | 722 | 57 | 100 | 151 | 184 | 419 | 795 | 1090 | 1760 | 3230 |
| 2026-04-28 12:30 | 4.01 | 321 | 4080 (1963) | 31 (1987) | 722 | 57 | 100 | 151 | 184 | 419 | 795 | 1090 | 1760 | 3230 |
| 2026-04-28 11:30 | 3.86 | 264 | 4080 (1963) | 31 (1987) | 722 | 57 | 100 | 151 | 184 | 419 | 795 | 1090 | 1760 | 3230 |
| 2026-04-28 10:30 | 3.93 | 290 | 4080 (1963) | 31 (1987) | 722 | 57 | 100 | 151 | 184 | 419 | 795 | 1090 | 1760 | 3230 |
| 2026-04-28 09:30 | 3.93 | 290 | 4080 (1963) | 31 (1987) | 722 | 57 | 100 | 151 | 184 | 419 | 795 | 1090 | 1760 | 3230 |
| 2026-04-28 08:30 | 3.95 | 297 | 4080 (1963) | 31 (1987) | 722 | 57 | 100 | 151 | 184 | 419 | 795 | 1090 | 1760 | 3230 |
| 2026-04-28 07:30 | 3.95 | 297 | 4080 (1963) | 31 (1987) | 722 | 57 | 100 | 151 | 184 | 419 | 795 | 1090 | 1760 | 3230 |
| 2026-04-28 06:30 | 3.97 | 305 | 4080 (1963) | 31 (1987) | 722 | 57 | 100 | 151 | 184 | 419 | 795 | 1090 | 1760 | 3230 |
| 2026-04-28 05:30 | 3.98 | 309 | 4080 (1963) | 31 (1987) | 722 | 57 | 100 | 151 | 184 | 419 | 795 | 1090 | 1760 | 3230 |
| 2026-04-28 04:30 | 3.99 | 313 | 4080 (1963) | 31 (1987) | 722 | 57 | 100 | 151 | 184 | 419 | 795 | 1090 | 1760 | 3230 |
| 2026-04-28 03:30 | 4.00 | 317 | 4080 (1963) | 31 (1987) | 722 | 57 | 100 | 151 | 184 | 419 | 795 | 1090 | 1760 | 3230 |
| 2026-04-28 02:30 | 4.01 | 321 | 4080 (1963) | 31 (1987) | 722 | 57 | 100 | 151 | 184 | 419 | 795 | 1090 | 1760 | 3230 |
| 2026-04-28 01:30 | 4.02 | 326 | 4080 (1963) | 31 (1987) | 722 | 57 | 100 | 151 | 184 | 419 | 795 | 1090 | 1760 | 3230 |
| 2026-04-28 00:30 | 4.04 | 334 | 4080 (1963) | 31 (1987) | 722 | 57 | 100 | 151 | 184 | 419 | 795 | 1090 | 1760 | 3230 |
| 2026-04-27 23:30 | 4.05 | 338 | 4080 (1963) | 31 (1987) | 722 | 57 | 100 | 151 | 184 | 419 | 795 | 1090 | 1760 | 3230 |
| 2026-04-27 22:30 | 4.06 | 343 | 4670 (1999) | 33 (1987) | 733 | 71 | 80 | 169 | 197 | 450 | 760 | 1080 | 2330 | 2870 |
| 2026-04-27 21:30 | 4.07 | 347 | 4670 (1999) | 33 (1987) | 733 | 71 | 80 | 169 | 197 | 450 | 760 | 1080 | 2330 | 2870 |
| 2026-04-27 20:30 | 4.09 | 356 | 4670 (1999) | 33 (1987) | 733 | 71 | 80 | 169 | 197 | 450 | 760 | 1080 | 2330 | 2870 |
| 2026-04-27 19:30 | 4.10 | 360 | 4670 (1999) | 33 (1987) | 733 | 71 | 80 | 169 | 197 | 450 | 760 | 1080 | 2330 | 2870 |
| 2026-04-27 18:30 | 4.11 | 365 | 4670 (1999) | 33 (1987) | 733 | 71 | 80 | 169 | 197 | 450 | 760 | 1080 | 2330 | 2870 |
| 2026-04-27 17:30 | 4.12 | 369 | 4670 (1999) | 33 (1987) | 733 | 71 | 80 | 169 | 197 | 450 | 760 | 1080 | 2330 | 2870 |
| 2026-04-27 16:30 | 4.14 | 378 | 4670 (1999) | 33 (1987) | 733 | 71 | 80 | 169 | 197 | 450 | 760 | 1080 | 2330 | 2870 |
| 2026-04-27 15:30 | 4.15 | 382 | 4670 (1999) | 33 (1987) | 733 | 71 | 80 | 169 | 197 | 450 | 760 | 1080 | 2330 | 2870 |
| 2026-04-27 14:30 | 4.16 | 387 | 4670 (1999) | 33 (1987) | 733 | 71 | 80 | 169 | 197 | 450 | 760 | 1080 | 2330 | 2870 |
| 2026-04-27 13:30 | 4.17 | 391 | 4670 (1999) | 33 (1987) | 733 | 71 | 80 | 169 | 197 | 450 | 760 | 1080 | 2330 | 2870 |
| 2026-04-27 12:30 | 4.17 | 391 | 4670 (1999) | 33 (1987) | 733 | 71 | 80 | 169 | 197 | 450 | 760 | 1080 | 2330 | 2870 |
| 2026-04-27 11:30 | 4.20 | 405 | 4670 (1999) | 33 (1987) | 733 | 71 | 80 | 169 | 197 | 450 | 760 | 1080 | 2330 | 2870 |
| 2026-04-27 10:30 | 4.21 | 410 | 4670 (1999) | 33 (1987) | 733 | 71 | 80 | 169 | 197 | 450 | 760 | 1080 | 2330 | 2870 |
| 2026-04-27 09:30 | 4.22 | 415 | 4670 (1999) | 33 (1987) | 733 | 71 | 80 | 169 | 197 | 450 | 760 | 1080 | 2330 | 2870 |
| 2026-04-27 08:30 | 4.23 | 420 | 4670 (1999) | 33 (1987) | 733 | 71 | 80 | 169 | 197 | 450 | 760 | 1080 | 2330 | 2870 |
| 2026-04-27 07:30 | 4.24 | 425 | 4670 (1999) | 33 (1987) | 733 | 71 | 80 | 169 | 197 | 450 | 760 | 1080 | 2330 | 2870 |
| 2026-04-27 06:30 | 4.26 | 434 | 4670 (1999) | 33 (1987) | 733 | 71 | 80 | 169 | 197 | 450 | 760 | 1080 | 2330 | 2870 |
| 2026-04-27 05:30 | 4.27 | 439 | 4670 (1999) | 33 (1987) | 733 | 71 | 80 | 169 | 197 | 450 | 760 | 1080 | 2330 | 2870 |
| 2026-04-27 04:30 | 4.27 | 439 | 4670 (1999) | 33 (1987) | 733 | 71 | 80 | 169 | 197 | 450 | 760 | 1080 | 2330 | 2870 |
| 2026-04-27 03:30 | 4.28 | 444 | 4670 (1999) | 33 (1987) | 733 | 71 | 80 | 169 | 197 | 450 | 760 | 1080 | 2330 | 2870 |
| 2026-04-27 02:30 | 4.30 | 454 | 4670 (1999) | 33 (1987) | 733 | 71 | 80 | 169 | 197 | 450 | 760 | 1080 | 2330 | 2870 |
| 2026-04-27 01:30 | 4.31 | 459 | 4670 (1999) | 33 (1987) | 733 | 71 | 80 | 169 | 197 | 450 | 760 | 1080 | 2330 | 2870 |
| 2026-04-27 00:30 | 4.33 | 470 | 4670 (1999) | 33 (1987) | 733 | 71 | 80 | 169 | 197 | 450 | 760 | 1080 | 2330 | 2870 |
| 2026-04-26 23:30 | 4.34 | 475 | 4670 (1999) | 33 (1987) | 733 | 71 | 80 | 169 | 197 | 450 | 760 | 1080 | 2330 | 2870 |
| 2026-04-26 22:30 | 4.35 | 480 | 10100 (1970) | 37 (1987) | 964 | 51 | 80 | 182 | 205 | 295 | 755 | 1060 | 2190 | 6640 |
| 2026-04-26 21:30 | 4.37 | 491 | 10100 (1970) | 37 (1987) | 964 | 51 | 80 | 182 | 205 | 295 | 755 | 1060 | 2190 | 6640 |
| 2026-04-26 20:30 | 4.37 | 491 | 10100 (1970) | 37 (1987) | 964 | 51 | 80 | 182 | 205 | 295 | 755 | 1060 | 2190 | 6640 |
| 2026-04-26 19:30 | 4.40 | 507 | 10100 (1970) | 37 (1987) | 964 | 51 | 80 | 182 | 205 | 295 | 755 | 1060 | 2190 | 6640 |
| 2026-04-26 18:30 | 4.40 | 507 | 10100 (1970) | 37 (1987) | 964 | 51 | 80 | 182 | 205 | 295 | 755 | 1060 | 2190 | 6640 |
| 2026-04-26 17:30 | 4.42 | 518 | 10100 (1970) | 37 (1987) | 964 | 51 | 80 | 182 | 205 | 295 | 755 | 1060 | 2190 | 6640 |
| 2026-04-26 16:30 | 4.44 | 529 | 10100 (1970) | 37 (1987) | 964 | 51 | 80 | 182 | 205 | 295 | 755 | 1060 | 2190 | 6640 |
| 2026-04-26 15:30 | 4.45 | 535 | 10100 (1970) | 37 (1987) | 964 | 51 | 80 | 182 | 205 | 295 | 755 | 1060 | 2190 | 6640 |
| 2026-04-26 14:30 | 4.48 | 552 | 10100 (1970) | 37 (1987) | 964 | 51 | 80 | 182 | 205 | 295 | 755 | 1060 | 2190 | 6640 |
| 2026-04-26 13:30 | 4.49 | 558 | 10100 (1970) | 37 (1987) | 964 | 51 | 80 | 182 | 205 | 295 | 755 | 1060 | 2190 | 6640 |
| 2026-04-26 12:30 | 4.49 | 558 | 10100 (1970) | 37 (1987) | 964 | 51 | 80 | 182 | 205 | 295 | 755 | 1060 | 2190 | 6640 |
| 2026-04-26 11:30 | 4.52 | 576 | 10100 (1970) | 37 (1987) | 964 | 51 | 80 | 182 | 205 | 295 | 755 | 1060 | 2190 | 6640 |
| 2026-04-26 10:30 | 4.52 | 576 | 10100 (1970) | 37 (1987) | 964 | 51 | 80 | 182 | 205 | 295 | 755 | 1060 | 2190 | 6640 |
| 2026-04-26 09:30 | 4.53 | 582 | 10100 (1970) | 37 (1987) | 964 | 51 | 80 | 182 | 205 | 295 | 755 | 1060 | 2190 | 6640 |
| 2026-04-26 08:30 | 4.58 | 612 | 10100 (1970) | 37 (1987) | 964 | 51 | 80 | 182 | 205 | 295 | 755 | 1060 | 2190 | 6640 |
| 2026-04-26 07:30 | 4.57 | 606 | 10100 (1970) | 37 (1987) | 964 | 51 | 80 | 182 | 205 | 295 | 755 | 1060 | 2190 | 6640 |
| 2026-04-26 06:30 | 4.60 | 625 | 10100 (1970) | 37 (1987) | 964 | 51 | 80 | 182 | 205 | 295 | 755 | 1060 | 2190 | 6640 |
| 2026-04-26 05:30 | 4.63 | 644 | 10100 (1970) | 37 (1987) | 964 | 51 | 80 | 182 | 205 | 295 | 755 | 1060 | 2190 | 6640 |
| 2026-04-26 04:30 | 4.65 | 657 | 10100 (1970) | 37 (1987) | 964 | 51 | 80 | 182 | 205 | 295 | 755 | 1060 | 2190 | 6640 |
| 2026-04-26 03:30 | 4.68 | 677 | 10100 (1970) | 37 (1987) | 964 | 51 | 80 | 182 | 205 | 295 | 755 | 1060 | 2190 | 6640 |
| 2026-04-26 02:30 | 4.72 | 704 | 10100 (1970) | 37 (1987) | 964 | 51 | 80 | 182 | 205 | 295 | 755 | 1060 | 2190 | 6640 |
| 2026-04-26 01:30 | 4.75 | 724 | 10100 (1970) | 37 (1987) | 964 | 51 | 80 | 182 | 205 | 295 | 755 | 1060 | 2190 | 6640 |
| 2026-04-26 00:30 | 4.80 | 760 | 10100 (1970) | 37 (1987) | 964 | 51 | 80 | 182 | 205 | 295 | 755 | 1060 | 2190 | 6640 |
| 2026-04-25 23:30 | 4.83 | 781 | 10100 (1970) | 37 (1987) | 964 | 51 | 80 | 182 | 205 | 295 | 755 | 1060 | 2190 | 6640 |
| 2026-04-25 22:30 | 4.79 | 752 | 15200 (2022) | 42 (1987) | 1270 | 53 | 68 | 125 | 147 | 348 | 1030 | 1150 | 4050 | 6270 |
| 2026-04-25 21:30 | 4.93 | 851 | 15200 (2022) | 42 (1987) | 1270 | 53 | 68 | 125 | 147 | 348 | 1030 | 1150 | 4050 | 6270 |
| 2026-04-25 20:30 | 4.98 | 885 | 15200 (2022) | 42 (1987) | 1270 | 53 | 68 | 125 | 147 | 348 | 1030 | 1150 | 4050 | 6270 |
| 2026-04-25 19:30 | 5.02 | 915 | 15200 (2022) | 42 (1987) | 1270 | 53 | 68 | 125 | 147 | 348 | 1030 | 1150 | 4050 | 6270 |
| 2026-04-25 18:30 | 5.06 | 948 | 15200 (2022) | 42 (1987) | 1270 | 53 | 68 | 125 | 147 | 348 | 1030 | 1150 | 4050 | 6270 |
| 2026-04-25 17:30 | 5.10 | 981 | 15200 (2022) | 42 (1987) | 1270 | 53 | 68 | 125 | 147 | 348 | 1030 | 1150 | 4050 | 6270 |
| 2026-04-25 16:30 | 5.09 | 973 | 15200 (2022) | 42 (1987) | 1270 | 53 | 68 | 125 | 147 | 348 | 1030 | 1150 | 4050 | 6270 |
| 2026-04-25 15:30 | 5.07 | 956 | 15200 (2022) | 42 (1987) | 1270 | 53 | 68 | 125 | 147 | 348 | 1030 | 1150 | 4050 | 6270 |
| 2026-04-25 14:30 | 5.04 | 931 | 15200 (2022) | 42 (1987) | 1270 | 53 | 68 | 125 | 147 | 348 | 1030 | 1150 | 4050 | 6270 |
| 2026-04-25 13:30 | 5.02 | 915 | 15200 (2022) | 42 (1987) | 1270 | 53 | 68 | 125 | 147 | 348 | 1030 | 1150 | 4050 | 6270 |
| 2026-04-25 12:30 | 4.98 | 885 | 15200 (2022) | 42 (1987) | 1270 | 53 | 68 | 125 | 147 | 348 | 1030 | 1150 | 4050 | 6270 |
| 2026-04-25 11:30 | 4.70 | 690 | 15200 (2022) | 42 (1987) | 1270 | 53 | 68 | 125 | 147 | 348 | 1030 | 1150 | 4050 | 6270 |
| 2026-04-25 10:30 | 4.04 | 334 | 15200 (2022) | 42 (1987) | 1270 | 53 | 68 | 125 | 147 | 348 | 1030 | 1150 | 4050 | 6270 |
| 2026-04-25 09:30 | 3.66 | 198 | 15200 (2022) | 42 (1987) | 1270 | 53 | 68 | 125 | 147 | 348 | 1030 | 1150 | 4050 | 6270 |
| 2026-04-25 08:30 | 3.59 | 178 | 15200 (2022) | 42 (1987) | 1270 | 53 | 68 | 125 | 147 | 348 | 1030 | 1150 | 4050 | 6270 |
| 2026-04-25 07:30 | 3.54 | 165 | 15200 (2022) | 42 (1987) | 1270 | 53 | 68 | 125 | 147 | 348 | 1030 | 1150 | 4050 | 6270 |
| 2026-04-25 06:30 | 3.51 | 159 | 15200 (2022) | 42 (1987) | 1270 | 53 | 68 | 125 | 147 | 348 | 1030 | 1150 | 4050 | 6270 |
| 2026-04-25 05:30 | 3.48 | 154 | 15200 (2022) | 42 (1987) | 1270 | 53 | 68 | 125 | 147 | 348 | 1030 | 1150 | 4050 | 6270 |
| 2026-04-25 04:30 | 3.45 | 149 | 15200 (2022) | 42 (1987) | 1270 | 53 | 68 | 125 | 147 | 348 | 1030 | 1150 | 4050 | 6270 |
| 2026-04-25 03:30 | 3.42 | 144 | 15200 (2022) | 42 (1987) | 1270 | 53 | 68 | 125 | 147 | 348 | 1030 | 1150 | 4050 | 6270 |
| 2026-04-25 02:30 | 3.38 | 137 | 15200 (2022) | 42 (1987) | 1270 | 53 | 68 | 125 | 147 | 348 | 1030 | 1150 | 4050 | 6270 |
| 2026-04-25 01:30 | 3.35 | 133 | 15200 (2022) | 42 (1987) | 1270 | 53 | 68 | 125 | 147 | 348 | 1030 | 1150 | 4050 | 6270 |
| 2026-04-25 00:30 | 3.32 | 128 | 15200 (2022) | 42 (1987) | 1270 | 53 | 68 | 125 | 147 | 348 | 1030 | 1150 | 4050 | 6270 |
| 2026-04-24 23:30 | 3.31 | 126 | 15200 (2022) | 42 (1987) | 1270 | 53 | 68 | 125 | 147 | 348 | 1030 | 1150 | 4050 | 6270 |
| 2026-04-24 22:30 | 3.32 | 128 | 8060 (1973) | 29 (2006) | 853 | 53 | 63 | 107 | 118 | 379 | 825 | 1020 | 2320 | 4150 |
| 2026-04-24 21:30 | 3.33 | 129 | 8060 (1973) | 29 (2006) | 853 | 53 | 63 | 107 | 118 | 379 | 825 | 1020 | 2320 | 4150 |
| 2026-04-24 20:30 | 3.25 | 117 | 8060 (1973) | 29 (2006) | 853 | 53 | 63 | 107 | 118 | 379 | 825 | 1020 | 2320 | 4150 |
| 2026-04-24 19:30 | 3.21 | 111 | 8060 (1973) | 29 (2006) | 853 | 53 | 63 | 107 | 118 | 379 | 825 | 1020 | 2320 | 4150 |
| 2026-04-24 18:30 | 3.21 | 111 | 8060 (1973) | 29 (2006) | 853 | 53 | 63 | 107 | 118 | 379 | 825 | 1020 | 2320 | 4150 |
| 2026-04-24 17:30 | 3.22 | 113 | 8060 (1973) | 29 (2006) | 853 | 53 | 63 | 107 | 118 | 379 | 825 | 1020 | 2320 | 4150 |
| 2026-04-24 16:30 | 3.24 | 116 | 8060 (1973) | 29 (2006) | 853 | 53 | 63 | 107 | 118 | 379 | 825 | 1020 | 2320 | 4150 |
| 2026-04-24 15:30 | 3.25 | 117 | 8060 (1973) | 29 (2006) | 853 | 53 | 63 | 107 | 118 | 379 | 825 | 1020 | 2320 | 4150 |
| 2026-04-24 14:30 | 3.26 | 119 | 8060 (1973) | 29 (2006) | 853 | 53 | 63 | 107 | 118 | 379 | 825 | 1020 | 2320 | 4150 |
| 2026-04-24 13:30 | 3.25 | 117 | 8060 (1973) | 29 (2006) | 853 | 53 | 63 | 107 | 118 | 379 | 825 | 1020 | 2320 | 4150 |
| 2026-04-24 12:30 | 3.25 | 117 | 8060 (1973) | 29 (2006) | 853 | 53 | 63 | 107 | 118 | 379 | 825 | 1020 | 2320 | 4150 |
| 2026-04-24 11:30 | 3.25 | 117 | 8060 (1973) | 29 (2006) | 853 | 53 | 63 | 107 | 118 | 379 | 825 | 1020 | 2320 | 4150 |
| 2026-04-24 10:30 | 3.26 | 119 | 8060 (1973) | 29 (2006) | 853 | 53 | 63 | 107 | 118 | 379 | 825 | 1020 | 2320 | 4150 |
| 2026-04-24 09:30 | 3.26 | 119 | 8060 (1973) | 29 (2006) | 853 | 53 | 63 | 107 | 118 | 379 | 825 | 1020 | 2320 | 4150 |
| 2026-04-24 08:30 | 3.26 | 119 | 8060 (1973) | 29 (2006) | 853 | 53 | 63 | 107 | 118 | 379 | 825 | 1020 | 2320 | 4150 |
| 2026-04-24 07:30 | 3.27 | 120 | 8060 (1973) | 29 (2006) | 853 | 53 | 63 | 107 | 118 | 379 | 825 | 1020 | 2320 | 4150 |
| 2026-04-24 06:30 | 3.27 | 120 | 8060 (1973) | 29 (2006) | 853 | 53 | 63 | 107 | 118 | 379 | 825 | 1020 | 2320 | 4150 |
| 2026-04-24 05:30 | 3.27 | 120 | 8060 (1973) | 29 (2006) | 853 | 53 | 63 | 107 | 118 | 379 | 825 | 1020 | 2320 | 4150 |
| 2026-04-24 04:30 | 3.27 | 120 | 8060 (1973) | 29 (2006) | 853 | 53 | 63 | 107 | 118 | 379 | 825 | 1020 | 2320 | 4150 |
| 2026-04-24 03:30 | 3.27 | 120 | 8060 (1973) | 29 (2006) | 853 | 53 | 63 | 107 | 118 | 379 | 825 | 1020 | 2320 | 4150 |
| 2026-04-24 02:30 | 3.28 | 122 | 8060 (1973) | 29 (2006) | 853 | 53 | 63 | 107 | 118 | 379 | 825 | 1020 | 2320 | 4150 |
| 2026-04-24 01:30 | 3.28 | 122 | 8060 (1973) | 29 (2006) | 853 | 53 | 63 | 107 | 118 | 379 | 825 | 1020 | 2320 | 4150 |
| 2026-04-24 00:30 | 3.29 | 123 | 8060 (1973) | 29 (2006) | 853 | 53 | 63 | 107 | 118 | 379 | 825 | 1020 | 2320 | 4150 |
| 2026-04-23 23:30 | 3.29 | 123 | 8060 (1973) | 29 (2006) | 853 | 53 | 63 | 107 | 118 | 379 | 825 | 1020 | 2320 | 4150 |
| 2026-04-23 22:30 | 3.30 | 125 | 6900 (1985) | 26 (2006) | 868 | 55 | 63 | 100 | 122 | 295 | 810 | 941 | 3080 | 4220 |
| 2026-04-23 21:30 | 3.30 | 125 | 6900 (1985) | 26 (2006) | 868 | 55 | 63 | 100 | 122 | 295 | 810 | 941 | 3080 | 4220 |
| 2026-04-23 20:30 | 3.30 | 125 | 6900 (1985) | 26 (2006) | 868 | 55 | 63 | 100 | 122 | 295 | 810 | 941 | 3080 | 4220 |
| 2026-04-23 19:30 | 3.32 | 128 | 6900 (1985) | 26 (2006) | 868 | 55 | 63 | 100 | 122 | 295 | 810 | 941 | 3080 | 4220 |
| 2026-04-23 18:30 | 3.28 | 122 | 6900 (1985) | 26 (2006) | 868 | 55 | 63 | 100 | 122 | 295 | 810 | 941 | 3080 | 4220 |
| 2026-04-23 17:30 | 3.33 | 129 | 6900 (1985) | 26 (2006) | 868 | 55 | 63 | 100 | 122 | 295 | 810 | 941 | 3080 | 4220 |
| 2026-04-23 16:30 | 3.31 | 126 | 6900 (1985) | 26 (2006) | 868 | 55 | 63 | 100 | 122 | 295 | 810 | 941 | 3080 | 4220 |
| 2026-04-23 15:30 | 3.32 | 128 | 6900 (1985) | 26 (2006) | 868 | 55 | 63 | 100 | 122 | 295 | 810 | 941 | 3080 | 4220 |
| 2026-04-23 14:30 | 3.32 | 128 | 6900 (1985) | 26 (2006) | 868 | 55 | 63 | 100 | 122 | 295 | 810 | 941 | 3080 | 4220 |
| 2026-04-23 13:30 | 3.34 | 131 | 6900 (1985) | 26 (2006) | 868 | 55 | 63 | 100 | 122 | 295 | 810 | 941 | 3080 | 4220 |
| 2026-04-23 12:30 | 3.34 | 131 | 6900 (1985) | 26 (2006) | 868 | 55 | 63 | 100 | 122 | 295 | 810 | 941 | 3080 | 4220 |
| 2026-04-23 11:30 | 3.35 | 133 | 6900 (1985) | 26 (2006) | 868 | 55 | 63 | 100 | 122 | 295 | 810 | 941 | 3080 | 4220 |
| 2026-04-23 10:30 | 3.36 | 134 | 6900 (1985) | 26 (2006) | 868 | 55 | 63 | 100 | 122 | 295 | 810 | 941 | 3080 | 4220 |
| 2026-04-23 09:30 | 3.36 | 134 | 6900 (1985) | 26 (2006) | 868 | 55 | 63 | 100 | 122 | 295 | 810 | 941 | 3080 | 4220 |
| 2026-04-23 08:30 | 3.36 | 134 | 6900 (1985) | 26 (2006) | 868 | 55 | 63 | 100 | 122 | 295 | 810 | 941 | 3080 | 4220 |
| 2026-04-23 07:30 | 3.37 | 136 | 6900 (1985) | 26 (2006) | 868 | 55 | 63 | 100 | 122 | 295 | 810 | 941 | 3080 | 4220 |
| 2026-04-23 06:30 | 3.38 | 137 | 6900 (1985) | 26 (2006) | 868 | 55 | 63 | 100 | 122 | 295 | 810 | 941 | 3080 | 4220 |
| 2026-04-23 05:30 | 3.37 | 136 | 6900 (1985) | 26 (2006) | 868 | 55 | 63 | 100 | 122 | 295 | 810 | 941 | 3080 | 4220 |
| 2026-04-23 04:30 | 3.38 | 137 | 6900 (1985) | 26 (2006) | 868 | 55 | 63 | 100 | 122 | 295 | 810 | 941 | 3080 | 4220 |
| 2026-04-23 03:30 | 3.38 | 137 | 6900 (1985) | 26 (2006) | 868 | 55 | 63 | 100 | 122 | 295 | 810 | 941 | 3080 | 4220 |
| 2026-04-23 02:30 | 3.39 | 139 | 6900 (1985) | 26 (2006) | 868 | 55 | 63 | 100 | 122 | 295 | 810 | 941 | 3080 | 4220 |
| 2026-04-23 01:30 | 3.40 | 141 | 6900 (1985) | 26 (2006) | 868 | 55 | 63 | 100 | 122 | 295 | 810 | 941 | 3080 | 4220 |
| 2026-04-23 00:30 | 3.40 | 141 | 6900 (1985) | 26 (2006) | 868 | 55 | 63 | 100 | 122 | 295 | 810 | 941 | 3080 | 4220 |
| 2026-04-22 23:30 | 3.41 | 142 | 6900 (1985) | 26 (2006) | 868 | 55 | 63 | 100 | 122 | 295 | 810 | 941 | 3080 | 4220 |
| 2026-04-22 22:30 | 3.41 | 142 | 17700 (1974) | 26 (1966) | 885 | 58 | 70 | 108 | 120 | 244 | 838 | 1150 | 1850 | 3260 |
| 2026-04-22 21:30 | 3.42 | 144 | 17700 (1974) | 26 (1966) | 885 | 58 | 70 | 108 | 120 | 244 | 838 | 1150 | 1850 | 3260 |
| 2026-04-22 20:30 | 3.43 | 146 | 17700 (1974) | 26 (1966) | 885 | 58 | 70 | 108 | 120 | 244 | 838 | 1150 | 1850 | 3260 |
| 2026-04-22 19:30 | 3.44 | 147 | 17700 (1974) | 26 (1966) | 885 | 58 | 70 | 108 | 120 | 244 | 838 | 1150 | 1850 | 3260 |
| 2026-04-22 18:30 | 3.45 | 149 | 17700 (1974) | 26 (1966) | 885 | 58 | 70 | 108 | 120 | 244 | 838 | 1150 | 1850 | 3260 |
| 2026-04-22 17:30 | 3.46 | 151 | 17700 (1974) | 26 (1966) | 885 | 58 | 70 | 108 | 120 | 244 | 838 | 1150 | 1850 | 3260 |
| 2026-04-22 16:30 | 3.46 | 151 | 17700 (1974) | 26 (1966) | 885 | 58 | 70 | 108 | 120 | 244 | 838 | 1150 | 1850 | 3260 |
| 2026-04-22 15:30 | 3.47 | 153 | 17700 (1974) | 26 (1966) | 885 | 58 | 70 | 108 | 120 | 244 | 838 | 1150 | 1850 | 3260 |
| 2026-04-22 14:30 | 3.47 | 153 | 17700 (1974) | 26 (1966) | 885 | 58 | 70 | 108 | 120 | 244 | 838 | 1150 | 1850 | 3260 |
| 2026-04-22 13:30 | 3.47 | 153 | 17700 (1974) | 26 (1966) | 885 | 58 | 70 | 108 | 120 | 244 | 838 | 1150 | 1850 | 3260 |
| 2026-04-22 12:30 | 3.48 | 154 | 17700 (1974) | 26 (1966) | 885 | 58 | 70 | 108 | 120 | 244 | 838 | 1150 | 1850 | 3260 |
| 2026-04-22 11:30 | 3.48 | 154 | 17700 (1974) | 26 (1966) | 885 | 58 | 70 | 108 | 120 | 244 | 838 | 1150 | 1850 | 3260 |
| 2026-04-22 10:30 | 3.49 | 156 | 17700 (1974) | 26 (1966) | 885 | 58 | 70 | 108 | 120 | 244 | 838 | 1150 | 1850 | 3260 |
| 2026-04-22 09:30 | 3.49 | 156 | 17700 (1974) | 26 (1966) | 885 | 58 | 70 | 108 | 120 | 244 | 838 | 1150 | 1850 | 3260 |
| 2026-04-22 08:30 | 3.50 | 158 | 17700 (1974) | 26 (1966) | 885 | 58 | 70 | 108 | 120 | 244 | 838 | 1150 | 1850 | 3260 |
| 2026-04-22 07:30 | 3.51 | 159 | 17700 (1974) | 26 (1966) | 885 | 58 | 70 | 108 | 120 | 244 | 838 | 1150 | 1850 | 3260 |
| 2026-04-22 06:30 | 3.52 | 161 | 17700 (1974) | 26 (1966) | 885 | 58 | 70 | 108 | 120 | 244 | 838 | 1150 | 1850 | 3260 |
| 2026-04-22 05:30 | 3.52 | 161 | 17700 (1974) | 26 (1966) | 885 | 58 | 70 | 108 | 120 | 244 | 838 | 1150 | 1850 | 3260 |
| 2026-04-22 04:30 | 3.53 | 163 | 17700 (1974) | 26 (1966) | 885 | 58 | 70 | 108 | 120 | 244 | 838 | 1150 | 1850 | 3260 |
| 2026-04-22 03:30 | 3.54 | 165 | 17700 (1974) | 26 (1966) | 885 | 58 | 70 | 108 | 120 | 244 | 838 | 1150 | 1850 | 3260 |
| 2026-04-22 02:30 | 3.54 | 165 | 17700 (1974) | 26 (1966) | 885 | 58 | 70 | 108 | 120 | 244 | 838 | 1150 | 1850 | 3260 |
| 2026-04-22 01:30 | 3.55 | 167 | 17700 (1974) | 26 (1966) | 885 | 58 | 70 | 108 | 120 | 244 | 838 | 1150 | 1850 | 3260 |
| 2026-04-22 00:30 | 3.56 | 170 | 17700 (1974) | 26 (1966) | 885 | 58 | 70 | 108 | 120 | 244 | 838 | 1150 | 1850 | 3260 |
| 2026-04-21 23:30 | 3.56 | 170 | 17700 (1974) | 26 (1966) | 885 | 58 | 70 | 108 | 120 | 244 | 838 | 1150 | 1850 | 3260 |
| 2026-04-21 22:30 | 3.57 | 173 | 9200 (1990) | 27 (1966) | 686 | 68 | 75 | 106 | 123 | 267 | 622 | 819 | 1710 | 2780 |
| 2026-04-21 21:30 | 3.58 | 176 | 9200 (1990) | 27 (1966) | 686 | 68 | 75 | 106 | 123 | 267 | 622 | 819 | 1710 | 2780 |
| 2026-04-21 20:30 | 3.59 | 178 | 9200 (1990) | 27 (1966) | 686 | 68 | 75 | 106 | 123 | 267 | 622 | 819 | 1710 | 2780 |
| 2026-04-21 19:30 | 3.59 | 178 | 9200 (1990) | 27 (1966) | 686 | 68 | 75 | 106 | 123 | 267 | 622 | 819 | 1710 | 2780 |
| 2026-04-21 18:30 | 3.60 | 181 | 9200 (1990) | 27 (1966) | 686 | 68 | 75 | 106 | 123 | 267 | 622 | 819 | 1710 | 2780 |
| 2026-04-21 17:30 | 3.61 | 184 | 9200 (1990) | 27 (1966) | 686 | 68 | 75 | 106 | 123 | 267 | 622 | 819 | 1710 | 2780 |
| 2026-04-21 16:30 | 3.60 | 181 | 9200 (1990) | 27 (1966) | 686 | 68 | 75 | 106 | 123 | 267 | 622 | 819 | 1710 | 2780 |
| 2026-04-21 15:30 | 3.63 | 189 | 9200 (1990) | 27 (1966) | 686 | 68 | 75 | 106 | 123 | 267 | 622 | 819 | 1710 | 2780 |
| 2026-04-21 14:30 | 3.64 | 192 | 9200 (1990) | 27 (1966) | 686 | 68 | 75 | 106 | 123 | 267 | 622 | 819 | 1710 | 2780 |
| 2026-04-21 13:30 | 3.65 | 195 | 9200 (1990) | 27 (1966) | 686 | 68 | 75 | 106 | 123 | 267 | 622 | 819 | 1710 | 2780 |
| 2026-04-21 12:30 | 3.66 | 198 | 9200 (1990) | 27 (1966) | 686 | 68 | 75 | 106 | 123 | 267 | 622 | 819 | 1710 | 2780 |
| 2026-04-21 11:30 | 3.67 | 201 | 9200 (1990) | 27 (1966) | 686 | 68 | 75 | 106 | 123 | 267 | 622 | 819 | 1710 | 2780 |
| 2026-04-21 10:30 | 3.68 | 204 | 9200 (1990) | 27 (1966) | 686 | 68 | 75 | 106 | 123 | 267 | 622 | 819 | 1710 | 2780 |
| 2026-04-21 09:30 | 3.68 | 202 | 9200 (1990) | 27 (1966) | 686 | 68 | 75 | 106 | 123 | 267 | 622 | 819 | 1710 | 2780 |
| 2026-04-21 08:30 | 3.69 | 205 | 9200 (1990) | 27 (1966) | 686 | 68 | 75 | 106 | 123 | 267 | 622 | 819 | 1710 | 2780 |
| 2026-04-21 07:30 | 3.70 | 208 | 9200 (1990) | 27 (1966) | 686 | 68 | 75 | 106 | 123 | 267 | 622 | 819 | 1710 | 2780 |
| 2026-04-21 06:30 | 3.70 | 208 | 9200 (1990) | 27 (1966) | 686 | 68 | 75 | 106 | 123 | 267 | 622 | 819 | 1710 | 2780 |
| 2026-04-21 05:30 | 3.71 | 211 | 9200 (1990) | 27 (1966) | 686 | 68 | 75 | 106 | 123 | 267 | 622 | 819 | 1710 | 2780 |
| 2026-04-21 04:30 | 3.72 | 214 | 9200 (1990) | 27 (1966) | 686 | 68 | 75 | 106 | 123 | 267 | 622 | 819 | 1710 | 2780 |
| 2026-04-21 03:30 | 3.73 | 217 | 9200 (1990) | 27 (1966) | 686 | 68 | 75 | 106 | 123 | 267 | 622 | 819 | 1710 | 2780 |
| 2026-04-21 02:30 | 3.74 | 220 | 9200 (1990) | 27 (1966) | 686 | 68 | 75 | 106 | 123 | 267 | 622 | 819 | 1710 | 2780 |
| 2026-04-21 01:30 | 3.74 | 220 | 9200 (1990) | 27 (1966) | 686 | 68 | 75 | 106 | 123 | 267 | 622 | 819 | 1710 | 2780 |
| 2026-04-21 00:30 | 3.75 | 224 | 9200 (1990) | 27 (1966) | 686 | 68 | 75 | 106 | 123 | 267 | 622 | 819 | 1710 | 2780 |
| 2026-04-20 23:30 | 3.76 | 227 | 9200 (1990) | 27 (1966) | 686 | 68 | 75 | 106 | 123 | 267 | 622 | 819 | 1710 | 2780 |
| 2026-04-20 22:30 | 3.78 | 233 | 9620 (1986) | 27 (2006) | 924 | 65 | 79 | 100 | 119 | 274 | 869 | 1230 | 2760 | 5470 |
| 2026-04-20 21:30 | 3.79 | 237 | 9620 (1986) | 27 (2006) | 924 | 65 | 79 | 100 | 119 | 274 | 869 | 1230 | 2760 | 5470 |
| 2026-04-20 20:30 | 3.81 | 244 | 9620 (1986) | 27 (2006) | 924 | 65 | 79 | 100 | 119 | 274 | 869 | 1230 | 2760 | 5470 |
| 2026-04-20 19:30 | 3.83 | 251 | 9620 (1986) | 27 (2006) | 924 | 65 | 79 | 100 | 119 | 274 | 869 | 1230 | 2760 | 5470 |
| 2026-04-20 18:30 | 3.85 | 258 | 9620 (1986) | 27 (2006) | 924 | 65 | 79 | 100 | 119 | 274 | 869 | 1230 | 2760 | 5470 |
| 2026-04-20 17:30 | 3.86 | 261 | 9620 (1986) | 27 (2006) | 924 | 65 | 79 | 100 | 119 | 274 | 869 | 1230 | 2760 | 5470 |
| 2026-04-20 16:30 | 3.86 | 261 | 9620 (1986) | 27 (2006) | 924 | 65 | 79 | 100 | 119 | 274 | 869 | 1230 | 2760 | 5470 |
| 2026-04-20 15:30 | 3.88 | 268 | 9620 (1986) | 27 (2006) | 924 | 65 | 79 | 100 | 119 | 274 | 869 | 1230 | 2760 | 5470 |
| 2026-04-20 14:30 | 3.90 | 276 | 9620 (1986) | 27 (2006) | 924 | 65 | 79 | 100 | 119 | 274 | 869 | 1230 | 2760 | 5470 |
| 2026-04-20 13:30 | 3.90 | 276 | 9620 (1986) | 27 (2006) | 924 | 65 | 79 | 100 | 119 | 274 | 869 | 1230 | 2760 | 5470 |
| 2026-04-20 12:30 | 3.91 | 280 | 9620 (1986) | 27 (2006) | 924 | 65 | 79 | 100 | 119 | 274 | 869 | 1230 | 2760 | 5470 |
| 2026-04-20 11:30 | 3.91 | 280 | 9620 (1986) | 27 (2006) | 924 | 65 | 79 | 100 | 119 | 274 | 869 | 1230 | 2760 | 5470 |
| 2026-04-20 10:30 | 3.93 | 287 | 9620 (1986) | 27 (2006) | 924 | 65 | 79 | 100 | 119 | 274 | 869 | 1230 | 2760 | 5470 |
| 2026-04-20 09:30 | 3.93 | 287 | 9620 (1986) | 27 (2006) | 924 | 65 | 79 | 100 | 119 | 274 | 869 | 1230 | 2760 | 5470 |
| 2026-04-20 08:30 | 3.94 | 291 | 9620 (1986) | 27 (2006) | 924 | 65 | 79 | 100 | 119 | 274 | 869 | 1230 | 2760 | 5470 |
| 2026-04-20 07:30 | 3.94 | 291 | 9620 (1986) | 27 (2006) | 924 | 65 | 79 | 100 | 119 | 274 | 869 | 1230 | 2760 | 5470 |
| 2026-04-20 06:30 | 3.95 | 295 | 9620 (1986) | 27 (2006) | 924 | 65 | 79 | 100 | 119 | 274 | 869 | 1230 | 2760 | 5470 |
| 2026-04-20 05:30 | 3.96 | 299 | 9620 (1986) | 27 (2006) | 924 | 65 | 79 | 100 | 119 | 274 | 869 | 1230 | 2760 | 5470 |
| 2026-04-20 04:30 | 3.97 | 303 | 9620 (1986) | 27 (2006) | 924 | 65 | 79 | 100 | 119 | 274 | 869 | 1230 | 2760 | 5470 |
| 2026-04-20 03:30 | 3.98 | 307 | 9620 (1986) | 27 (2006) | 924 | 65 | 79 | 100 | 119 | 274 | 869 | 1230 | 2760 | 5470 |
| 2026-04-20 02:30 | 3.99 | 311 | 9620 (1986) | 27 (2006) | 924 | 65 | 79 | 100 | 119 | 274 | 869 | 1230 | 2760 | 5470 |
| 2026-04-20 01:30 | 4.00 | 315 | 9620 (1986) | 27 (2006) | 924 | 65 | 79 | 100 | 119 | 274 | 869 | 1230 | 2760 | 5470 |
| 2026-04-20 00:30 | 4.01 | 319 | 9620 (1986) | 27 (2006) | 924 | 65 | 79 | 100 | 119 | 274 | 869 | 1230 | 2760 | 5470 |
| 2026-04-19 23:30 | 4.02 | 323 | 9620 (1986) | 27 (2006) | 924 | 65 | 79 | 100 | 119 | 274 | 869 | 1230 | 2760 | 5470 |
| 2026-04-19 22:30 | 4.03 | 327 | 7370 (1986) | 26 (1966) | 723 | 50 | 75 | 98 | 113 | 257 | 772 | 932 | 2350 | 3440 |
| 2026-04-19 21:30 | 4.05 | 336 | 7370 (1986) | 26 (1966) | 723 | 50 | 75 | 98 | 113 | 257 | 772 | 932 | 2350 | 3440 |
| 2026-04-19 20:30 | 4.07 | 344 | 7370 (1986) | 26 (1966) | 723 | 50 | 75 | 98 | 113 | 257 | 772 | 932 | 2350 | 3440 |
| 2026-04-19 19:30 | 4.09 | 353 | 7370 (1986) | 26 (1966) | 723 | 50 | 75 | 98 | 113 | 257 | 772 | 932 | 2350 | 3440 |
| 2026-04-19 18:30 | 4.10 | 358 | 7370 (1986) | 26 (1966) | 723 | 50 | 75 | 98 | 113 | 257 | 772 | 932 | 2350 | 3440 |
| 2026-04-19 17:30 | 4.12 | 367 | 7370 (1986) | 26 (1966) | 723 | 50 | 75 | 98 | 113 | 257 | 772 | 932 | 2350 | 3440 |
| 2026-04-19 16:30 | 4.14 | 376 | 7370 (1986) | 26 (1966) | 723 | 50 | 75 | 98 | 113 | 257 | 772 | 932 | 2350 | 3440 |
| 2026-04-19 15:30 | 4.15 | 380 | 7370 (1986) | 26 (1966) | 723 | 50 | 75 | 98 | 113 | 257 | 772 | 932 | 2350 | 3440 |
| 2026-04-19 14:30 | 4.16 | 385 | 7370 (1986) | 26 (1966) | 723 | 50 | 75 | 98 | 113 | 257 | 772 | 932 | 2350 | 3440 |
| 2026-04-19 13:30 | 4.17 | 389 | 7370 (1986) | 26 (1966) | 723 | 50 | 75 | 98 | 113 | 257 | 772 | 932 | 2350 | 3440 |
| 2026-04-19 12:30 | 4.16 | 385 | 7370 (1986) | 26 (1966) | 723 | 50 | 75 | 98 | 113 | 257 | 772 | 932 | 2350 | 3440 |
| 2026-04-19 11:30 | 4.17 | 389 | 7370 (1986) | 26 (1966) | 723 | 50 | 75 | 98 | 113 | 257 | 772 | 932 | 2350 | 3440 |
| 2026-04-19 10:30 | 4.19 | 398 | 7370 (1986) | 26 (1966) | 723 | 50 | 75 | 98 | 113 | 257 | 772 | 932 | 2350 | 3440 |
| 2026-04-19 09:30 | 4.19 | 398 | 7370 (1986) | 26 (1966) | 723 | 50 | 75 | 98 | 113 | 257 | 772 | 932 | 2350 | 3440 |
| 2026-04-19 08:30 | 4.19 | 398 | 7370 (1986) | 26 (1966) | 723 | 50 | 75 | 98 | 113 | 257 | 772 | 932 | 2350 | 3440 |
| 2026-04-19 07:30 | 4.19 | 398 | 7370 (1986) | 26 (1966) | 723 | 50 | 75 | 98 | 113 | 257 | 772 | 932 | 2350 | 3440 |
| 2026-04-19 06:30 | 4.19 | 398 | 7370 (1986) | 26 (1966) | 723 | 50 | 75 | 98 | 113 | 257 | 772 | 932 | 2350 | 3440 |
| 2026-04-19 05:30 | 4.20 | 403 | 7370 (1986) | 26 (1966) | 723 | 50 | 75 | 98 | 113 | 257 | 772 | 932 | 2350 | 3440 |
| 2026-04-19 04:30 | 4.21 | 408 | 7370 (1986) | 26 (1966) | 723 | 50 | 75 | 98 | 113 | 257 | 772 | 932 | 2350 | 3440 |
| 2026-04-19 03:30 | 4.22 | 413 | 7370 (1986) | 26 (1966) | 723 | 50 | 75 | 98 | 113 | 257 | 772 | 932 | 2350 | 3440 |
| 2026-04-19 02:30 | 4.23 | 417 | 7370 (1986) | 26 (1966) | 723 | 50 | 75 | 98 | 113 | 257 | 772 | 932 | 2350 | 3440 |
| 2026-04-19 01:30 | 4.23 | 417 | 7370 (1986) | 26 (1966) | 723 | 50 | 75 | 98 | 113 | 257 | 772 | 932 | 2350 | 3440 |
| 2026-04-19 00:30 | 4.24 | 422 | 7370 (1986) | 26 (1966) | 723 | 50 | 75 | 98 | 113 | 257 | 772 | 932 | 2350 | 3440 |
| 2026-04-18 23:30 | 4.24 | 422 | 7370 (1986) | 26 (1966) | 723 | 50 | 75 | 98 | 113 | 257 | 772 | 932 | 2350 | 3440 |
| 2026-04-18 22:30 | 4.24 | 422 | 15200 (2016) | 24 (1966) | 799 | 51 | 60 | 109 | 122 | 223 | 486 | 514 | 2000 | 2980 |
| 2026-04-18 21:30 | 4.24 | 422 | 15200 (2016) | 24 (1966) | 799 | 51 | 60 | 109 | 122 | 223 | 486 | 514 | 2000 | 2980 |
| 2026-04-18 20:30 | 4.25 | 427 | 15200 (2016) | 24 (1966) | 799 | 51 | 60 | 109 | 122 | 223 | 486 | 514 | 2000 | 2980 |
| 2026-04-18 19:30 | 4.25 | 427 | 15200 (2016) | 24 (1966) | 799 | 51 | 60 | 109 | 122 | 223 | 486 | 514 | 2000 | 2980 |
| 2026-04-18 18:30 | 4.22 | 413 | 15200 (2016) | 24 (1966) | 799 | 51 | 60 | 109 | 122 | 223 | 486 | 514 | 2000 | 2980 |
| 2026-04-18 17:30 | 4.25 | 427 | 15200 (2016) | 24 (1966) | 799 | 51 | 60 | 109 | 122 | 223 | 486 | 514 | 2000 | 2980 |
| 2026-04-18 16:30 | 4.24 | 422 | 15200 (2016) | 24 (1966) | 799 | 51 | 60 | 109 | 122 | 223 | 486 | 514 | 2000 | 2980 |
| 2026-04-18 15:30 | 4.23 | 417 | 15200 (2016) | 24 (1966) | 799 | 51 | 60 | 109 | 122 | 223 | 486 | 514 | 2000 | 2980 |
| 2026-04-18 14:30 | 4.25 | 427 | 15200 (2016) | 24 (1966) | 799 | 51 | 60 | 109 | 122 | 223 | 486 | 514 | 2000 | 2980 |
| 2026-04-18 13:30 | 4.24 | 422 | 15200 (2016) | 24 (1966) | 799 | 51 | 60 | 109 | 122 | 223 | 486 | 514 | 2000 | 2980 |
| 2026-04-18 12:30 | 4.25 | 427 | 15200 (2016) | 24 (1966) | 799 | 51 | 60 | 109 | 122 | 223 | 486 | 514 | 2000 | 2980 |
| 2026-04-18 11:30 | 4.27 | 437 | 15200 (2016) | 24 (1966) | 799 | 51 | 60 | 109 | 122 | 223 | 486 | 514 | 2000 | 2980 |
| 2026-04-18 10:30 | 4.25 | 427 | 15200 (2016) | 24 (1966) | 799 | 51 | 60 | 109 | 122 | 223 | 486 | 514 | 2000 | 2980 |
| 2026-04-18 09:30 | 4.28 | 442 | 15200 (2016) | 24 (1966) | 799 | 51 | 60 | 109 | 122 | 223 | 486 | 514 | 2000 | 2980 |
| 2026-04-18 08:30 | 4.28 | 442 | 15200 (2016) | 24 (1966) | 799 | 51 | 60 | 109 | 122 | 223 | 486 | 514 | 2000 | 2980 |
| 2026-04-18 07:30 | 4.28 | 442 | 15200 (2016) | 24 (1966) | 799 | 51 | 60 | 109 | 122 | 223 | 486 | 514 | 2000 | 2980 |
| 2026-04-18 06:30 | 4.30 | 452 | 15200 (2016) | 24 (1966) | 799 | 51 | 60 | 109 | 122 | 223 | 486 | 514 | 2000 | 2980 |
| 2026-04-18 05:30 | 4.31 | 457 | 15200 (2016) | 24 (1966) | 799 | 51 | 60 | 109 | 122 | 223 | 486 | 514 | 2000 | 2980 |
| 2026-04-18 04:30 | 4.33 | 468 | 15200 (2016) | 24 (1966) | 799 | 51 | 60 | 109 | 122 | 223 | 486 | 514 | 2000 | 2980 |
| 2026-04-18 03:30 | 4.34 | 473 | 15200 (2016) | 24 (1966) | 799 | 51 | 60 | 109 | 122 | 223 | 486 | 514 | 2000 | 2980 |
| 2026-04-18 02:30 | 4.34 | 473 | 15200 (2016) | 24 (1966) | 799 | 51 | 60 | 109 | 122 | 223 | 486 | 514 | 2000 | 2980 |
| 2026-04-18 01:30 | 4.36 | 483 | 15200 (2016) | 24 (1966) | 799 | 51 | 60 | 109 | 122 | 223 | 486 | 514 | 2000 | 2980 |
| 2026-04-18 00:30 | 4.38 | 494 | 15200 (2016) | 24 (1966) | 799 | 51 | 60 | 109 | 122 | 223 | 486 | 514 | 2000 | 2980 |
| 2026-04-17 23:30 | 4.38 | 494 | 15200 (2016) | 24 (1966) | 799 | 51 | 60 | 109 | 122 | 223 | 486 | 514 | 2000 | 2980 |
| 2026-04-17 22:30 | 4.40 | 505 | 2510 (1962) | 23 (1966) | 383 | 41 | 63 | 109 | 116 | 203 | 453 | 545 | 818 | 1490 |
| 2026-04-17 21:30 | 4.41 | 511 | 2510 (1962) | 23 (1966) | 383 | 41 | 63 | 109 | 116 | 203 | 453 | 545 | 818 | 1490 |
| 2026-04-17 20:30 | 4.43 | 522 | 2510 (1962) | 23 (1966) | 383 | 41 | 63 | 109 | 116 | 203 | 453 | 545 | 818 | 1490 |
| 2026-04-17 19:30 | 4.45 | 533 | 2510 (1962) | 23 (1966) | 383 | 41 | 63 | 109 | 116 | 203 | 453 | 545 | 818 | 1490 |
| 2026-04-17 18:30 | 4.48 | 550 | 2510 (1962) | 23 (1966) | 383 | 41 | 63 | 109 | 116 | 203 | 453 | 545 | 818 | 1490 |
| 2026-04-17 17:30 | 4.50 | 562 | 2510 (1962) | 23 (1966) | 383 | 41 | 63 | 109 | 116 | 203 | 453 | 545 | 818 | 1490 |
| 2026-04-17 16:30 | 4.51 | 568 | 2510 (1962) | 23 (1966) | 383 | 41 | 63 | 109 | 116 | 203 | 453 | 545 | 818 | 1490 |
| 2026-04-17 15:30 | 4.54 | 586 | 2510 (1962) | 23 (1966) | 383 | 41 | 63 | 109 | 116 | 203 | 453 | 545 | 818 | 1490 |
| 2026-04-17 14:30 | 4.56 | 598 | 2510 (1962) | 23 (1966) | 383 | 41 | 63 | 109 | 116 | 203 | 453 | 545 | 818 | 1490 |
| 2026-04-17 13:30 | 4.55 | 592 | 2510 (1962) | 23 (1966) | 383 | 41 | 63 | 109 | 116 | 203 | 453 | 545 | 818 | 1490 |
| 2026-04-17 12:30 | 4.57 | 604 | 2510 (1962) | 23 (1966) | 383 | 41 | 63 | 109 | 116 | 203 | 453 | 545 | 818 | 1490 |
| 2026-04-17 11:30 | 4.62 | 636 | 2510 (1962) | 23 (1966) | 383 | 41 | 63 | 109 | 116 | 203 | 453 | 545 | 818 | 1490 |
| 2026-04-17 10:30 | 4.62 | 636 | 2510 (1962) | 23 (1966) | 383 | 41 | 63 | 109 | 116 | 203 | 453 | 545 | 818 | 1490 |
| 2026-04-17 09:30 | 4.68 | 675 | 2510 (1962) | 23 (1966) | 383 | 41 | 63 | 109 | 116 | 203 | 453 | 545 | 818 | 1490 |
| 2026-04-17 08:30 | 4.69 | 682 | 2510 (1962) | 23 (1966) | 383 | 41 | 63 | 109 | 116 | 203 | 453 | 545 | 818 | 1490 |
| 2026-04-17 07:30 | 4.73 | 709 | 2510 (1962) | 23 (1966) | 383 | 41 | 63 | 109 | 116 | 203 | 453 | 545 | 818 | 1490 |
| 2026-04-17 06:30 | 4.74 | 716 | 2510 (1962) | 23 (1966) | 383 | 41 | 63 | 109 | 116 | 203 | 453 | 545 | 818 | 1490 |
| 2026-04-17 05:30 | 4.78 | 744 | 2510 (1962) | 23 (1966) | 383 | 41 | 63 | 109 | 116 | 203 | 453 | 545 | 818 | 1490 |
| 2026-04-17 04:30 | 4.81 | 766 | 2510 (1962) | 23 (1966) | 383 | 41 | 63 | 109 | 116 | 203 | 453 | 545 | 818 | 1490 |
| 2026-04-17 03:30 | 4.83 | 781 | 2510 (1962) | 23 (1966) | 383 | 41 | 63 | 109 | 116 | 203 | 453 | 545 | 818 | 1490 |
| 2026-04-17 02:30 | 4.87 | 811 | 2510 (1962) | 23 (1966) | 383 | 41 | 63 | 109 | 116 | 203 | 453 | 545 | 818 | 1490 |
| 2026-04-17 01:30 | 4.88 | 817 | 2510 (1962) | 23 (1966) | 383 | 41 | 63 | 109 | 116 | 203 | 453 | 545 | 818 | 1490 |
| 2026-04-17 00:30 | 4.90 | 831 | 2510 (1962) | 23 (1966) | 383 | 41 | 63 | 109 | 116 | 203 | 453 | 545 | 818 | 1490 |
| 2026-04-16 23:30 | 4.91 | 837 | 2510 (1962) | 23 (1966) | 383 | 41 | 63 | 109 | 116 | 203 | 453 | 545 | 818 | 1490 |
| 2026-04-16 22:30 | 4.91 | 837 | 7060 (1973) | 24 (1966) | 473 | 43 | 67 | 87 | 128 | 226 | 468 | 596 | 1100 | 1490 |
| 2026-04-16 21:30 | 4.91 | 837 | 7060 (1973) | 24 (1966) | 473 | 43 | 67 | 87 | 128 | 226 | 468 | 596 | 1100 | 1490 |
| 2026-04-16 20:30 | 4.90 | 831 | 7060 (1973) | 24 (1966) | 473 | 43 | 67 | 87 | 128 | 226 | 468 | 596 | 1100 | 1490 |
| 2026-04-16 19:30 | 4.91 | 837 | 7060 (1973) | 24 (1966) | 473 | 43 | 67 | 87 | 128 | 226 | 468 | 596 | 1100 | 1490 |
| 2026-04-16 18:30 | 4.92 | 844 | 7060 (1973) | 24 (1966) | 473 | 43 | 67 | 87 | 128 | 226 | 468 | 596 | 1100 | 1490 |
| 2026-04-16 17:30 | 4.90 | 831 | 7060 (1973) | 24 (1966) | 473 | 43 | 67 | 87 | 128 | 226 | 468 | 596 | 1100 | 1490 |
| 2026-04-16 16:30 | 4.90 | 831 | 7060 (1973) | 24 (1966) | 473 | 43 | 67 | 87 | 128 | 226 | 468 | 596 | 1100 | 1490 |
| 2026-04-16 15:30 | 4.88 | 817 | 7060 (1973) | 24 (1966) | 473 | 43 | 67 | 87 | 128 | 226 | 468 | 596 | 1100 | 1490 |
| 2026-04-16 14:30 | 4.90 | 831 | 7060 (1973) | 24 (1966) | 473 | 43 | 67 | 87 | 128 | 226 | 468 | 596 | 1100 | 1490 |
| 2026-04-16 13:30 | 4.92 | 844 | 7060 (1973) | 24 (1966) | 473 | 43 | 67 | 87 | 128 | 226 | 468 | 596 | 1100 | 1490 |
| 2026-04-16 12:30 | 4.96 | 871 | 7060 (1973) | 24 (1966) | 473 | 43 | 67 | 87 | 128 | 226 | 468 | 596 | 1100 | 1490 |
| 2026-04-16 11:30 | 5.02 | 915 | 7060 (1973) | 24 (1966) | 473 | 43 | 67 | 87 | 128 | 226 | 468 | 596 | 1100 | 1490 |
| 2026-04-16 10:30 | 5.07 | 956 | 7060 (1973) | 24 (1966) | 473 | 43 | 67 | 87 | 128 | 226 | 468 | 596 | 1100 | 1490 |
| 2026-04-16 09:30 | 5.11 | 990 | 7060 (1973) | 24 (1966) | 473 | 43 | 67 | 87 | 128 | 226 | 468 | 596 | 1100 | 1490 |
| 2026-04-16 08:30 | 5.05 | 939 | 7060 (1973) | 24 (1966) | 473 | 43 | 67 | 87 | 128 | 226 | 468 | 596 | 1100 | 1490 |
| 2026-04-16 07:30 | 4.85 | 796 | 7060 (1973) | 24 (1966) | 473 | 43 | 67 | 87 | 128 | 226 | 468 | 596 | 1100 | 1490 |
| 2026-04-16 06:30 | 4.58 | 611 | 7060 (1973) | 24 (1966) | 473 | 43 | 67 | 87 | 128 | 226 | 468 | 596 | 1100 | 1490 |
| 2026-04-16 05:30 | 4.48 | 550 | 7060 (1973) | 24 (1966) | 473 | 43 | 67 | 87 | 128 | 226 | 468 | 596 | 1100 | 1490 |
| 2026-04-16 04:30 | 4.32 | 462 | 7060 (1973) | 24 (1966) | 473 | 43 | 67 | 87 | 128 | 226 | 468 | 596 | 1100 | 1490 |
| 2026-04-16 03:30 | 3.96 | 299 | 7060 (1973) | 24 (1966) | 473 | 43 | 67 | 87 | 128 | 226 | 468 | 596 | 1100 | 1490 |
| 2026-04-16 02:30 | 3.68 | 202 | 7060 (1973) | 24 (1966) | 473 | 43 | 67 | 87 | 128 | 226 | 468 | 596 | 1100 | 1490 |
| 2026-04-16 01:30 | 3.51 | 158 | 7060 (1973) | 24 (1966) | 473 | 43 | 67 | 87 | 128 | 226 | 468 | 596 | 1100 | 1490 |
| 2026-04-16 00:30 | 3.30 | 123 | 7060 (1973) | 24 (1966) | 473 | 43 | 67 | 87 | 128 | 226 | 468 | 596 | 1100 | 1490 |
| 2026-04-15 23:30 | 3.18 | 105 | 7060 (1973) | 24 (1966) | 473 | 43 | 67 | 87 | 128 | 226 | 468 | 596 | 1100 | 1490 |
| 2026-04-15 22:30 | 3.07 | 91 | 8530 (2011) | 25 (1966) | 638 | 46 | 70 | 86 | 136 | 264 | 569 | 842 | 1720 | 2520 |
| 2026-04-15 21:30 | 3.10 | 94 | 8530 (2011) | 25 (1966) | 638 | 46 | 70 | 86 | 136 | 264 | 569 | 842 | 1720 | 2520 |
| 2026-04-15 20:30 | 3.10 | 94 | 8530 (2011) | 25 (1966) | 638 | 46 | 70 | 86 | 136 | 264 | 569 | 842 | 1720 | 2520 |
| 2026-04-15 19:30 | 3.11 | 96 | 8530 (2011) | 25 (1966) | 638 | 46 | 70 | 86 | 136 | 264 | 569 | 842 | 1720 | 2520 |
| 2026-04-15 18:30 | 3.12 | 97 | 8530 (2011) | 25 (1966) | 638 | 46 | 70 | 86 | 136 | 264 | 569 | 842 | 1720 | 2520 |
| 2026-04-15 17:30 | 3.12 | 97 | 8530 (2011) | 25 (1966) | 638 | 46 | 70 | 86 | 136 | 264 | 569 | 842 | 1720 | 2520 |
| 2026-04-15 16:30 | 3.13 | 99 | 8530 (2011) | 25 (1966) | 638 | 46 | 70 | 86 | 136 | 264 | 569 | 842 | 1720 | 2520 |
| 2026-04-15 15:30 | 3.12 | 97 | 8530 (2011) | 25 (1966) | 638 | 46 | 70 | 86 | 136 | 264 | 569 | 842 | 1720 | 2520 |
| 2026-04-15 14:30 | 3.14 | 100 | 8530 (2011) | 25 (1966) | 638 | 46 | 70 | 86 | 136 | 264 | 569 | 842 | 1720 | 2520 |
| 2026-04-15 13:30 | 3.13 | 99 | 8530 (2011) | 25 (1966) | 638 | 46 | 70 | 86 | 136 | 264 | 569 | 842 | 1720 | 2520 |
| 2026-04-15 12:30 | 3.14 | 100 | 8530 (2011) | 25 (1966) | 638 | 46 | 70 | 86 | 136 | 264 | 569 | 842 | 1720 | 2520 |
| 2026-04-15 11:30 | 3.15 | 101 | 8530 (2011) | 25 (1966) | 638 | 46 | 70 | 86 | 136 | 264 | 569 | 842 | 1720 | 2520 |
| 2026-04-15 10:30 | 3.15 | 101 | 8530 (2011) | 25 (1966) | 638 | 46 | 70 | 86 | 136 | 264 | 569 | 842 | 1720 | 2520 |
| 2026-04-15 09:30 | 3.14 | 100 | 8530 (2011) | 25 (1966) | 638 | 46 | 70 | 86 | 136 | 264 | 569 | 842 | 1720 | 2520 |
| 2026-04-15 08:30 | 3.17 | 104 | 8530 (2011) | 25 (1966) | 638 | 46 | 70 | 86 | 136 | 264 | 569 | 842 | 1720 | 2520 |
| 2026-04-15 07:30 | 3.16 | 103 | 8530 (2011) | 25 (1966) | 638 | 46 | 70 | 86 | 136 | 264 | 569 | 842 | 1720 | 2520 |
| 2026-04-15 06:30 | 3.17 | 104 | 8530 (2011) | 25 (1966) | 638 | 46 | 70 | 86 | 136 | 264 | 569 | 842 | 1720 | 2520 |
| 2026-04-15 05:30 | 3.17 | 104 | 8530 (2011) | 25 (1966) | 638 | 46 | 70 | 86 | 136 | 264 | 569 | 842 | 1720 | 2520 |
| 2026-04-15 04:30 | 3.18 | 105 | 8530 (2011) | 25 (1966) | 638 | 46 | 70 | 86 | 136 | 264 | 569 | 842 | 1720 | 2520 |
| 2026-04-15 03:30 | 3.18 | 105 | 8530 (2011) | 25 (1966) | 638 | 46 | 70 | 86 | 136 | 264 | 569 | 842 | 1720 | 2520 |
| 2026-04-15 02:30 | 3.18 | 105 | 8530 (2011) | 25 (1966) | 638 | 46 | 70 | 86 | 136 | 264 | 569 | 842 | 1720 | 2520 |
| 2026-04-15 01:30 | 3.19 | 107 | 8530 (2011) | 25 (1966) | 638 | 46 | 70 | 86 | 136 | 264 | 569 | 842 | 1720 | 2520 |
| 2026-04-15 00:30 | 3.20 | 108 | 8530 (2011) | 25 (1966) | 638 | 46 | 70 | 86 | 136 | 264 | 569 | 842 | 1720 | 2520 |
| 2026-04-14 23:30 | 3.20 | 108 | 8530 (2011) | 25 (1966) | 638 | 46 | 70 | 86 | 136 | 264 | 569 | 842 | 1720 | 2520 |
| 2026-04-14 22:30 | 3.20 | 108 | 13100 (1991) | 25 (1966) | 839 | 49 | 70 | 93 | 148 | 273 | 625 | 917 | 1940 | 4360 |
| 2026-04-14 21:30 | 3.21 | 110 | 13100 (1991) | 25 (1966) | 839 | 49 | 70 | 93 | 148 | 273 | 625 | 917 | 1940 | 4360 |
| 2026-04-14 20:30 | 3.21 | 110 | 13100 (1991) | 25 (1966) | 839 | 49 | 70 | 93 | 148 | 273 | 625 | 917 | 1940 | 4360 |
| 2026-04-14 19:30 | 3.22 | 111 | 13100 (1991) | 25 (1966) | 839 | 49 | 70 | 93 | 148 | 273 | 625 | 917 | 1940 | 4360 |
| 2026-04-14 18:30 | 3.22 | 111 | 13100 (1991) | 25 (1966) | 839 | 49 | 70 | 93 | 148 | 273 | 625 | 917 | 1940 | 4360 |
| 2026-04-14 17:30 | 3.22 | 111 | 13100 (1991) | 25 (1966) | 839 | 49 | 70 | 93 | 148 | 273 | 625 | 917 | 1940 | 4360 |
| 2026-04-14 16:30 | 3.20 | 108 | 13100 (1991) | 25 (1966) | 839 | 49 | 70 | 93 | 148 | 273 | 625 | 917 | 1940 | 4360 |
| 2026-04-14 15:30 | 3.23 | 113 | 13100 (1991) | 25 (1966) | 839 | 49 | 70 | 93 | 148 | 273 | 625 | 917 | 1940 | 4360 |
| 2026-04-14 14:30 | 3.20 | 108 | 13100 (1991) | 25 (1966) | 839 | 49 | 70 | 93 | 148 | 273 | 625 | 917 | 1940 | 4360 |
| 2026-04-14 13:30 | 3.24 | 114 | 13100 (1991) | 25 (1966) | 839 | 49 | 70 | 93 | 148 | 273 | 625 | 917 | 1940 | 4360 |
| 2026-04-14 12:30 | 3.22 | 111 | 13100 (1991) | 25 (1966) | 839 | 49 | 70 | 93 | 148 | 273 | 625 | 917 | 1940 | 4360 |
| 2026-04-14 11:30 | 3.26 | 117 | 13100 (1991) | 25 (1966) | 839 | 49 | 70 | 93 | 148 | 273 | 625 | 917 | 1940 | 4360 |
| 2026-04-14 09:30 | 3.27 | 119 | 13100 (1991) | 25 (1966) | 839 | 49 | 70 | 93 | 148 | 273 | 625 | 917 | 1940 | 4360 |
| 2026-04-14 08:30 | 3.26 | 117 | 13100 (1991) | 25 (1966) | 839 | 49 | 70 | 93 | 148 | 273 | 625 | 917 | 1940 | 4360 |
| 2026-04-14 07:30 | 3.27 | 119 | 13100 (1991) | 25 (1966) | 839 | 49 | 70 | 93 | 148 | 273 | 625 | 917 | 1940 | 4360 |
| 2026-04-14 06:30 | 3.27 | 119 | 13100 (1991) | 25 (1966) | 839 | 49 | 70 | 93 | 148 | 273 | 625 | 917 | 1940 | 4360 |
| 2026-04-14 05:30 | 3.27 | 119 | 13100 (1991) | 25 (1966) | 839 | 49 | 70 | 93 | 148 | 273 | 625 | 917 | 1940 | 4360 |
| 2026-04-14 04:30 | 3.28 | 120 | 13100 (1991) | 25 (1966) | 839 | 49 | 70 | 93 | 148 | 273 | 625 | 917 | 1940 | 4360 |
| 2026-04-14 03:30 | 3.28 | 120 | 13100 (1991) | 25 (1966) | 839 | 49 | 70 | 93 | 148 | 273 | 625 | 917 | 1940 | 4360 |
| 2026-04-14 02:30 | 3.28 | 120 | 13100 (1991) | 25 (1966) | 839 | 49 | 70 | 93 | 148 | 273 | 625 | 917 | 1940 | 4360 |
| 2026-04-14 01:30 | 3.29 | 122 | 13100 (1991) | 25 (1966) | 839 | 49 | 70 | 93 | 148 | 273 | 625 | 917 | 1940 | 4360 |
| 2026-04-14 00:30 | 3.29 | 122 | 13100 (1991) | 25 (1966) | 839 | 49 | 70 | 93 | 148 | 273 | 625 | 917 | 1940 | 4360 |
| 2026-04-13 23:30 | 3.27 | 119 | 13100 (1991) | 25 (1966) | 839 | 49 | 70 | 93 | 148 | 273 | 625 | 917 | 1940 | 4360 |
| 2026-04-13 22:30 | 3.29 | 122 | 17800 (1991) | 25 (1966) | 876 | 52 | 69 | 102 | 129 | 264 | 490 | 670 | 1340 | 5250 |
| 2026-04-13 21:30 | 3.29 | 122 | 17800 (1991) | 25 (1966) | 876 | 52 | 69 | 102 | 129 | 264 | 490 | 670 | 1340 | 5250 |
| 2026-04-13 20:30 | 3.30 | 123 | 17800 (1991) | 25 (1966) | 876 | 52 | 69 | 102 | 129 | 264 | 490 | 670 | 1340 | 5250 |
| 2026-04-13 19:30 | 3.31 | 125 | 17800 (1991) | 25 (1966) | 876 | 52 | 69 | 102 | 129 | 264 | 490 | 670 | 1340 | 5250 |
| 2026-04-13 18:30 | 3.33 | 128 | 17800 (1991) | 25 (1966) | 876 | 52 | 69 | 102 | 129 | 264 | 490 | 670 | 1340 | 5250 |
| 2026-04-13 17:30 | 3.30 | 123 | 17800 (1991) | 25 (1966) | 876 | 52 | 69 | 102 | 129 | 264 | 490 | 670 | 1340 | 5250 |
| 2026-04-13 16:30 | 3.32 | 126 | 17800 (1991) | 25 (1966) | 876 | 52 | 69 | 102 | 129 | 264 | 490 | 670 | 1340 | 5250 |
| 2026-04-13 15:30 | 3.31 | 125 | 17800 (1991) | 25 (1966) | 876 | 52 | 69 | 102 | 129 | 264 | 490 | 670 | 1340 | 5250 |
| 2026-04-13 14:30 | 3.33 | 128 | 17800 (1991) | 25 (1966) | 876 | 52 | 69 | 102 | 129 | 264 | 490 | 670 | 1340 | 5250 |
| 2026-04-13 13:30 | 3.34 | 129 | 17800 (1991) | 25 (1966) | 876 | 52 | 69 | 102 | 129 | 264 | 490 | 670 | 1340 | 5250 |
| 2026-04-13 12:30 | 3.34 | 129 | 17800 (1991) | 25 (1966) | 876 | 52 | 69 | 102 | 129 | 264 | 490 | 670 | 1340 | 5250 |
| 2026-04-13 11:30 | 3.34 | 129 | 17800 (1991) | 25 (1966) | 876 | 52 | 69 | 102 | 129 | 264 | 490 | 670 | 1340 | 5250 |
| 2026-04-13 10:30 | 3.35 | 131 | 17800 (1991) | 25 (1966) | 876 | 52 | 69 | 102 | 129 | 264 | 490 | 670 | 1340 | 5250 |
| 2026-04-13 09:30 | 3.36 | 133 | 17800 (1991) | 25 (1966) | 876 | 52 | 69 | 102 | 129 | 264 | 490 | 670 | 1340 | 5250 |
| 2026-04-13 08:30 | 3.36 | 133 | 17800 (1991) | 25 (1966) | 876 | 52 | 69 | 102 | 129 | 264 | 490 | 670 | 1340 | 5250 |
| 2026-04-13 07:30 | 3.37 | 134 | 17800 (1991) | 25 (1966) | 876 | 52 | 69 | 102 | 129 | 264 | 490 | 670 | 1340 | 5250 |
| 2026-04-13 06:30 | 3.37 | 134 | 17800 (1991) | 25 (1966) | 876 | 52 | 69 | 102 | 129 | 264 | 490 | 670 | 1340 | 5250 |
| 2026-04-13 05:30 | 3.38 | 136 | 17800 (1991) | 25 (1966) | 876 | 52 | 69 | 102 | 129 | 264 | 490 | 670 | 1340 | 5250 |
| 2026-04-13 04:30 | 3.39 | 137 | 17800 (1991) | 25 (1966) | 876 | 52 | 69 | 102 | 129 | 264 | 490 | 670 | 1340 | 5250 |
| 2026-04-13 03:30 | 3.39 | 137 | 17800 (1991) | 25 (1966) | 876 | 52 | 69 | 102 | 129 | 264 | 490 | 670 | 1340 | 5250 |
| 2026-04-13 02:30 | 3.40 | 139 | 17800 (1991) | 25 (1966) | 876 | 52 | 69 | 102 | 129 | 264 | 490 | 670 | 1340 | 5250 |
| 2026-04-13 01:30 | 3.40 | 139 | 17800 (1991) | 25 (1966) | 876 | 52 | 69 | 102 | 129 | 264 | 490 | 670 | 1340 | 5250 |
| 2026-04-13 00:30 | 3.41 | 141 | 17800 (1991) | 25 (1966) | 876 | 52 | 69 | 102 | 129 | 264 | 490 | 670 | 1340 | 5250 |
| 2026-04-12 23:30 | 3.41 | 141 | 17800 (1991) | 25 (1966) | 876 | 52 | 69 | 102 | 129 | 264 | 490 | 670 | 1340 | 5250 |
| 2026-04-12 22:30 | 3.42 | 142 | 9360 (1991) | 26 (1966) | 598 | 50 | 61 | 111 | 115 | 256 | 488 | 605 | 1280 | 2250 |
| 2026-04-12 21:30 | 3.42 | 142 | 9360 (1991) | 26 (1966) | 598 | 50 | 61 | 111 | 115 | 256 | 488 | 605 | 1280 | 2250 |
| 2026-04-12 20:30 | 3.42 | 142 | 9360 (1991) | 26 (1966) | 598 | 50 | 61 | 111 | 115 | 256 | 488 | 605 | 1280 | 2250 |
| 2026-04-12 19:30 | 3.43 | 144 | 9360 (1991) | 26 (1966) | 598 | 50 | 61 | 111 | 115 | 256 | 488 | 605 | 1280 | 2250 |
| 2026-04-12 18:30 | 3.43 | 144 | 9360 (1991) | 26 (1966) | 598 | 50 | 61 | 111 | 115 | 256 | 488 | 605 | 1280 | 2250 |
| 2026-04-12 17:30 | 3.44 | 146 | 9360 (1991) | 26 (1966) | 598 | 50 | 61 | 111 | 115 | 256 | 488 | 605 | 1280 | 2250 |
| 2026-04-12 16:30 | 3.41 | 141 | 9360 (1991) | 26 (1966) | 598 | 50 | 61 | 111 | 115 | 256 | 488 | 605 | 1280 | 2250 |
| 2026-04-12 15:30 | 3.45 | 148 | 9360 (1991) | 26 (1966) | 598 | 50 | 61 | 111 | 115 | 256 | 488 | 605 | 1280 | 2250 |
| 2026-04-12 14:30 | 3.45 | 148 | 9360 (1991) | 26 (1966) | 598 | 50 | 61 | 111 | 115 | 256 | 488 | 605 | 1280 | 2250 |
| 2026-04-12 13:30 | 3.46 | 149 | 9360 (1991) | 26 (1966) | 598 | 50 | 61 | 111 | 115 | 256 | 488 | 605 | 1280 | 2250 |
| 2026-04-12 12:30 | 3.47 | 151 | 9360 (1991) | 26 (1966) | 598 | 50 | 61 | 111 | 115 | 256 | 488 | 605 | 1280 | 2250 |
| 2026-04-12 11:30 | 3.41 | 141 | 9360 (1991) | 26 (1966) | 598 | 50 | 61 | 111 | 115 | 256 | 488 | 605 | 1280 | 2250 |
| 2026-04-12 10:30 | 3.46 | 149 | 9360 (1991) | 26 (1966) | 598 | 50 | 61 | 111 | 115 | 256 | 488 | 605 | 1280 | 2250 |
| 2026-04-12 09:30 | 3.48 | 153 | 9360 (1991) | 26 (1966) | 598 | 50 | 61 | 111 | 115 | 256 | 488 | 605 | 1280 | 2250 |
| 2026-04-12 08:30 | 3.48 | 153 | 9360 (1991) | 26 (1966) | 598 | 50 | 61 | 111 | 115 | 256 | 488 | 605 | 1280 | 2250 |
| 2026-04-12 07:30 | 3.49 | 154 | 9360 (1991) | 26 (1966) | 598 | 50 | 61 | 111 | 115 | 256 | 488 | 605 | 1280 | 2250 |
| 2026-04-12 06:30 | 3.49 | 154 | 9360 (1991) | 26 (1966) | 598 | 50 | 61 | 111 | 115 | 256 | 488 | 605 | 1280 | 2250 |
| 2026-04-12 05:30 | 3.48 | 153 | 9360 (1991) | 26 (1966) | 598 | 50 | 61 | 111 | 115 | 256 | 488 | 605 | 1280 | 2250 |
| 2026-04-12 04:30 | 3.51 | 158 | 9360 (1991) | 26 (1966) | 598 | 50 | 61 | 111 | 115 | 256 | 488 | 605 | 1280 | 2250 |
| 2026-04-12 03:30 | 3.51 | 158 | 9360 (1991) | 26 (1966) | 598 | 50 | 61 | 111 | 115 | 256 | 488 | 605 | 1280 | 2250 |
| 2026-04-12 02:30 | 3.52 | 160 | 9360 (1991) | 26 (1966) | 598 | 50 | 61 | 111 | 115 | 256 | 488 | 605 | 1280 | 2250 |
| 2026-04-12 01:30 | 3.52 | 160 | 9360 (1991) | 26 (1966) | 598 | 50 | 61 | 111 | 115 | 256 | 488 | 605 | 1280 | 2250 |
| 2026-04-12 00:30 | 3.53 | 161 | 9360 (1991) | 26 (1966) | 598 | 50 | 61 | 111 | 115 | 256 | 488 | 605 | 1280 | 2250 |
| 2026-04-11 23:30 | 3.54 | 163 | 9360 (1991) | 26 (1966) | 598 | 50 | 61 | 111 | 115 | 256 | 488 | 605 | 1280 | 2250 |
| 2026-04-11 22:30 | 3.55 | 165 | 2920 (1967) | 26 (1966) | 364 | 53 | 67 | 103 | 124 | 203 | 357 | 434 | 755 | 1300 |
| 2026-04-11 21:30 | 3.56 | 168 | 2920 (1967) | 26 (1966) | 364 | 53 | 67 | 103 | 124 | 203 | 357 | 434 | 755 | 1300 |
| 2026-04-11 20:30 | 3.57 | 170 | 2920 (1967) | 26 (1966) | 364 | 53 | 67 | 103 | 124 | 203 | 357 | 434 | 755 | 1300 |
| 2026-04-11 19:30 | 3.58 | 173 | 2920 (1967) | 26 (1966) | 364 | 53 | 67 | 103 | 124 | 203 | 357 | 434 | 755 | 1300 |
| 2026-04-11 18:30 | 3.59 | 176 | 2920 (1967) | 26 (1966) | 364 | 53 | 67 | 103 | 124 | 203 | 357 | 434 | 755 | 1300 |
| 2026-04-11 17:30 | 3.60 | 179 | 2920 (1967) | 26 (1966) | 364 | 53 | 67 | 103 | 124 | 203 | 357 | 434 | 755 | 1300 |
| 2026-04-11 16:30 | 3.62 | 184 | 2920 (1967) | 26 (1966) | 364 | 53 | 67 | 103 | 124 | 203 | 357 | 434 | 755 | 1300 |
| 2026-04-11 15:30 | 3.63 | 187 | 2920 (1967) | 26 (1966) | 364 | 53 | 67 | 103 | 124 | 203 | 357 | 434 | 755 | 1300 |
| 2026-04-11 14:30 | 3.59 | 176 | 2920 (1967) | 26 (1966) | 364 | 53 | 67 | 103 | 124 | 203 | 357 | 434 | 755 | 1300 |
| 2026-04-11 13:30 | 3.60 | 179 | 2920 (1967) | 26 (1966) | 364 | 53 | 67 | 103 | 124 | 203 | 357 | 434 | 755 | 1300 |
| 2026-04-11 12:30 | 3.64 | 190 | 2920 (1967) | 26 (1966) | 364 | 53 | 67 | 103 | 124 | 203 | 357 | 434 | 755 | 1300 |
| 2026-04-11 11:30 | 3.66 | 196 | 2920 (1967) | 26 (1966) | 364 | 53 | 67 | 103 | 124 | 203 | 357 | 434 | 755 | 1300 |
| 2026-04-11 10:30 | 3.66 | 196 | 2920 (1967) | 26 (1966) | 364 | 53 | 67 | 103 | 124 | 203 | 357 | 434 | 755 | 1300 |
| 2026-04-11 09:30 | 3.66 | 196 | 2920 (1967) | 26 (1966) | 364 | 53 | 67 | 103 | 124 | 203 | 357 | 434 | 755 | 1300 |
| 2026-04-11 08:30 | 3.67 | 199 | 2920 (1967) | 26 (1966) | 364 | 53 | 67 | 103 | 124 | 203 | 357 | 434 | 755 | 1300 |
| 2026-04-11 07:30 | 3.67 | 199 | 2920 (1967) | 26 (1966) | 364 | 53 | 67 | 103 | 124 | 203 | 357 | 434 | 755 | 1300 |
| 2026-04-11 06:30 | 3.68 | 202 | 2920 (1967) | 26 (1966) | 364 | 53 | 67 | 103 | 124 | 203 | 357 | 434 | 755 | 1300 |
| 2026-04-11 05:30 | 3.69 | 205 | 2920 (1967) | 26 (1966) | 364 | 53 | 67 | 103 | 124 | 203 | 357 | 434 | 755 | 1300 |
| 2026-04-11 04:30 | 3.69 | 205 | 2920 (1967) | 26 (1966) | 364 | 53 | 67 | 103 | 124 | 203 | 357 | 434 | 755 | 1300 |
| 2026-04-11 03:30 | 3.70 | 208 | 2920 (1967) | 26 (1966) | 364 | 53 | 67 | 103 | 124 | 203 | 357 | 434 | 755 | 1300 |
| 2026-04-11 02:30 | 3.71 | 211 | 2920 (1967) | 26 (1966) | 364 | 53 | 67 | 103 | 124 | 203 | 357 | 434 | 755 | 1300 |
| 2026-04-11 01:30 | 3.72 | 214 | 2920 (1967) | 26 (1966) | 364 | 53 | 67 | 103 | 124 | 203 | 357 | 434 | 755 | 1300 |
| 2026-04-11 00:30 | 3.73 | 217 | 2920 (1967) | 26 (1966) | 364 | 53 | 67 | 103 | 124 | 203 | 357 | 434 | 755 | 1300 |
| 2026-04-10 23:30 | 3.73 | 217 | 2920 (1967) | 26 (1966) | 364 | 53 | 67 | 103 | 124 | 203 | 357 | 434 | 755 | 1300 |
| 2026-04-10 22:30 | 3.74 | 220 | 3570 (2008) | 28 (1966) | 369 | 52 | 65 | 107 | 111 | 203 | 416 | 460 | 661 | 1310 |
| 2026-04-10 21:30 | 3.76 | 227 | 3570 (2008) | 28 (1966) | 369 | 52 | 65 | 107 | 111 | 203 | 416 | 460 | 661 | 1310 |
| 2026-04-10 20:30 | 3.77 | 230 | 3570 (2008) | 28 (1966) | 369 | 52 | 65 | 107 | 111 | 203 | 416 | 460 | 661 | 1310 |
| 2026-04-10 19:30 | 3.79 | 237 | 3570 (2008) | 28 (1966) | 369 | 52 | 65 | 107 | 111 | 203 | 416 | 460 | 661 | 1310 |
| 2026-04-10 18:30 | 3.80 | 240 | 3570 (2008) | 28 (1966) | 369 | 52 | 65 | 107 | 111 | 203 | 416 | 460 | 661 | 1310 |
| 2026-04-10 17:30 | 3.82 | 247 | 3570 (2008) | 28 (1966) | 369 | 52 | 65 | 107 | 111 | 203 | 416 | 460 | 661 | 1310 |
| 2026-04-10 16:30 | 3.83 | 251 | 3570 (2008) | 28 (1966) | 369 | 52 | 65 | 107 | 111 | 203 | 416 | 460 | 661 | 1310 |
| 2026-04-10 15:30 | 3.85 | 258 | 3570 (2008) | 28 (1966) | 369 | 52 | 65 | 107 | 111 | 203 | 416 | 460 | 661 | 1310 |
| 2026-04-10 14:30 | 3.85 | 258 | 3570 (2008) | 28 (1966) | 369 | 52 | 65 | 107 | 111 | 203 | 416 | 460 | 661 | 1310 |
| 2026-04-10 13:30 | 3.86 | 261 | 3570 (2008) | 28 (1966) | 369 | 52 | 65 | 107 | 111 | 203 | 416 | 460 | 661 | 1310 |
| 2026-04-10 12:30 | 3.86 | 261 | 3570 (2008) | 28 (1966) | 369 | 52 | 65 | 107 | 111 | 203 | 416 | 460 | 661 | 1310 |
| 2026-04-10 11:30 | 3.87 | 265 | 3570 (2008) | 28 (1966) | 369 | 52 | 65 | 107 | 111 | 203 | 416 | 460 | 661 | 1310 |
| 2026-04-10 10:30 | 3.88 | 268 | 3570 (2008) | 28 (1966) | 369 | 52 | 65 | 107 | 111 | 203 | 416 | 460 | 661 | 1310 |
| 2026-04-10 09:30 | 3.89 | 272 | 3570 (2008) | 28 (1966) | 369 | 52 | 65 | 107 | 111 | 203 | 416 | 460 | 661 | 1310 |
| 2026-04-10 08:30 | 3.89 | 272 | 3570 (2008) | 28 (1966) | 369 | 52 | 65 | 107 | 111 | 203 | 416 | 460 | 661 | 1310 |
| 2026-04-10 07:30 | 3.90 | 276 | 3570 (2008) | 28 (1966) | 369 | 52 | 65 | 107 | 111 | 203 | 416 | 460 | 661 | 1310 |
| 2026-04-10 06:30 | 3.90 | 276 | 3570 (2008) | 28 (1966) | 369 | 52 | 65 | 107 | 111 | 203 | 416 | 460 | 661 | 1310 |
| 2026-04-10 05:30 | 3.91 | 280 | 3570 (2008) | 28 (1966) | 369 | 52 | 65 | 107 | 111 | 203 | 416 | 460 | 661 | 1310 |
| 2026-04-10 04:30 | 3.91 | 280 | 3570 (2008) | 28 (1966) | 369 | 52 | 65 | 107 | 111 | 203 | 416 | 460 | 661 | 1310 |
| 2026-04-10 03:30 | 3.92 | 283 | 3570 (2008) | 28 (1966) | 369 | 52 | 65 | 107 | 111 | 203 | 416 | 460 | 661 | 1310 |
| 2026-04-10 02:30 | 3.93 | 287 | 3570 (2008) | 28 (1966) | 369 | 52 | 65 | 107 | 111 | 203 | 416 | 460 | 661 | 1310 |
| 2026-04-10 01:30 | 3.94 | 291 | 3570 (2008) | 28 (1966) | 369 | 52 | 65 | 107 | 111 | 203 | 416 | 460 | 661 | 1310 |
| 2026-04-10 00:30 | 3.95 | 295 | 3570 (2008) | 28 (1966) | 369 | 52 | 65 | 107 | 111 | 203 | 416 | 460 | 661 | 1310 |
| 2026-04-09 23:30 | 3.96 | 299 | 3570 (2008) | 28 (1966) | 369 | 52 | 65 | 107 | 111 | 203 | 416 | 460 | 661 | 1310 |
| 2026-04-09 22:30 | 3.97 | 303 | 4060 (2002) | 29 (2011) | 388 | 51 | 66 | 113 | 124 | 214 | 507 | 552 | 722 | 1280 |
| 2026-04-09 21:30 | 3.99 | 311 | 4060 (2002) | 29 (2011) | 388 | 51 | 66 | 113 | 124 | 214 | 507 | 552 | 722 | 1280 |
| 2026-04-09 20:30 | 4.00 | 315 | 4060 (2002) | 29 (2011) | 388 | 51 | 66 | 113 | 124 | 214 | 507 | 552 | 722 | 1280 |
| 2026-04-09 19:30 | 4.02 | 323 | 4060 (2002) | 29 (2011) | 388 | 51 | 66 | 113 | 124 | 214 | 507 | 552 | 722 | 1280 |
| 2026-04-09 18:30 | 4.04 | 332 | 4060 (2002) | 29 (2011) | 388 | 51 | 66 | 113 | 124 | 214 | 507 | 552 | 722 | 1280 |
| 2026-04-09 17:30 | 4.05 | 336 | 4060 (2002) | 29 (2011) | 388 | 51 | 66 | 113 | 124 | 214 | 507 | 552 | 722 | 1280 |
| 2026-04-09 16:30 | 4.06 | 340 | 4060 (2002) | 29 (2011) | 388 | 51 | 66 | 113 | 124 | 214 | 507 | 552 | 722 | 1280 |
| 2026-04-09 15:30 | 4.07 | 344 | 4060 (2002) | 29 (2011) | 388 | 51 | 66 | 113 | 124 | 214 | 507 | 552 | 722 | 1280 |
| 2026-04-09 14:30 | 4.07 | 344 | 4060 (2002) | 29 (2011) | 388 | 51 | 66 | 113 | 124 | 214 | 507 | 552 | 722 | 1280 |
| 2026-04-09 13:30 | 4.09 | 353 | 4060 (2002) | 29 (2011) | 388 | 51 | 66 | 113 | 124 | 214 | 507 | 552 | 722 | 1280 |
| 2026-04-09 12:30 | 4.10 | 358 | 4060 (2002) | 29 (2011) | 388 | 51 | 66 | 113 | 124 | 214 | 507 | 552 | 722 | 1280 |
| 2026-04-09 11:30 | 4.09 | 353 | 4060 (2002) | 29 (2011) | 388 | 51 | 66 | 113 | 124 | 214 | 507 | 552 | 722 | 1280 |
| 2026-04-09 10:30 | 4.11 | 362 | 4060 (2002) | 29 (2011) | 388 | 51 | 66 | 113 | 124 | 214 | 507 | 552 | 722 | 1280 |
| 2026-04-09 09:30 | 4.11 | 362 | 4060 (2002) | 29 (2011) | 388 | 51 | 66 | 113 | 124 | 214 | 507 | 552 | 722 | 1280 |
| 2026-04-09 08:30 | 4.12 | 367 | 4060 (2002) | 29 (2011) | 388 | 51 | 66 | 113 | 124 | 214 | 507 | 552 | 722 | 1280 |
| 2026-04-09 07:30 | 4.12 | 367 | 4060 (2002) | 29 (2011) | 388 | 51 | 66 | 113 | 124 | 214 | 507 | 552 | 722 | 1280 |
| 2026-04-09 06:30 | 4.13 | 371 | 4060 (2002) | 29 (2011) | 388 | 51 | 66 | 113 | 124 | 214 | 507 | 552 | 722 | 1280 |
| 2026-04-09 05:30 | 4.14 | 376 | 4060 (2002) | 29 (2011) | 388 | 51 | 66 | 113 | 124 | 214 | 507 | 552 | 722 | 1280 |
| 2026-04-09 04:30 | 4.14 | 376 | 4060 (2002) | 29 (2011) | 388 | 51 | 66 | 113 | 124 | 214 | 507 | 552 | 722 | 1280 |
| 2026-04-09 03:30 | 4.16 | 385 | 4060 (2002) | 29 (2011) | 388 | 51 | 66 | 113 | 124 | 214 | 507 | 552 | 722 | 1280 |
| 2026-04-09 02:30 | 4.16 | 385 | 4060 (2002) | 29 (2011) | 388 | 51 | 66 | 113 | 124 | 214 | 507 | 552 | 722 | 1280 |
| 2026-04-09 01:30 | 4.17 | 389 | 4060 (2002) | 29 (2011) | 388 | 51 | 66 | 113 | 124 | 214 | 507 | 552 | 722 | 1280 |
| 2026-04-09 00:30 | 4.18 | 394 | 4060 (2002) | 29 (2011) | 388 | 51 | 66 | 113 | 124 | 214 | 507 | 552 | 722 | 1280 |
| 2026-04-08 23:30 | 4.19 | 398 | 4060 (2002) | 29 (2011) | 388 | 51 | 66 | 113 | 124 | 214 | 507 | 552 | 722 | 1280 |
| 2026-04-08 22:30 | 4.20 | 403 | 20700 (2002) | 30 (2011) | 698 | 56 | 72 | 124 | 136 | 238 | 641 | 690 | 804 | 1250 |
| 2026-04-08 21:30 | 4.22 | 413 | 20700 (2002) | 30 (2011) | 698 | 56 | 72 | 124 | 136 | 238 | 641 | 690 | 804 | 1250 |
| 2026-04-08 20:30 | 4.23 | 417 | 20700 (2002) | 30 (2011) | 698 | 56 | 72 | 124 | 136 | 238 | 641 | 690 | 804 | 1250 |
| 2026-04-08 19:30 | 4.26 | 432 | 20700 (2002) | 30 (2011) | 698 | 56 | 72 | 124 | 136 | 238 | 641 | 690 | 804 | 1250 |
| 2026-04-08 18:30 | 4.25 | 427 | 20700 (2002) | 30 (2011) | 698 | 56 | 72 | 124 | 136 | 238 | 641 | 690 | 804 | 1250 |
| 2026-04-08 17:30 | 4.28 | 442 | 20700 (2002) | 30 (2011) | 698 | 56 | 72 | 124 | 136 | 238 | 641 | 690 | 804 | 1250 |
| 2026-04-08 16:30 | 4.29 | 447 | 20700 (2002) | 30 (2011) | 698 | 56 | 72 | 124 | 136 | 238 | 641 | 690 | 804 | 1250 |
| 2026-04-08 15:30 | 4.30 | 452 | 20700 (2002) | 30 (2011) | 698 | 56 | 72 | 124 | 136 | 238 | 641 | 690 | 804 | 1250 |
| 2026-04-08 14:30 | 4.30 | 452 | 20700 (2002) | 30 (2011) | 698 | 56 | 72 | 124 | 136 | 238 | 641 | 690 | 804 | 1250 |
| 2026-04-08 13:30 | 4.31 | 457 | 20700 (2002) | 30 (2011) | 698 | 56 | 72 | 124 | 136 | 238 | 641 | 690 | 804 | 1250 |
| 2026-04-08 12:30 | 4.32 | 462 | 20700 (2002) | 30 (2011) | 698 | 56 | 72 | 124 | 136 | 238 | 641 | 690 | 804 | 1250 |
| 2026-04-08 11:30 | 4.35 | 478 | 20700 (2002) | 30 (2011) | 698 | 56 | 72 | 124 | 136 | 238 | 641 | 690 | 804 | 1250 |
| 2026-04-08 10:30 | 4.36 | 483 | 20700 (2002) | 30 (2011) | 698 | 56 | 72 | 124 | 136 | 238 | 641 | 690 | 804 | 1250 |
| 2026-04-08 09:30 | 4.35 | 478 | 20700 (2002) | 30 (2011) | 698 | 56 | 72 | 124 | 136 | 238 | 641 | 690 | 804 | 1250 |
| 2026-04-08 08:30 | 4.37 | 489 | 20700 (2002) | 30 (2011) | 698 | 56 | 72 | 124 | 136 | 238 | 641 | 690 | 804 | 1250 |
| 2026-04-08 07:30 | 4.37 | 489 | 20700 (2002) | 30 (2011) | 698 | 56 | 72 | 124 | 136 | 238 | 641 | 690 | 804 | 1250 |
| 2026-04-08 06:30 | 4.39 | 500 | 20700 (2002) | 30 (2011) | 698 | 56 | 72 | 124 | 136 | 238 | 641 | 690 | 804 | 1250 |
| 2026-04-08 05:30 | 4.39 | 500 | 20700 (2002) | 30 (2011) | 698 | 56 | 72 | 124 | 136 | 238 | 641 | 690 | 804 | 1250 |
| 2026-04-08 04:30 | 4.40 | 505 | 20700 (2002) | 30 (2011) | 698 | 56 | 72 | 124 | 136 | 238 | 641 | 690 | 804 | 1250 |
| 2026-04-08 03:30 | 4.40 | 505 | 20700 (2002) | 30 (2011) | 698 | 56 | 72 | 124 | 136 | 238 | 641 | 690 | 804 | 1250 |
| 2026-04-08 02:30 | 4.40 | 505 | 20700 (2002) | 30 (2011) | 698 | 56 | 72 | 124 | 136 | 238 | 641 | 690 | 804 | 1250 |
| 2026-04-08 01:30 | 4.42 | 516 | 20700 (2002) | 30 (2011) | 698 | 56 | 72 | 124 | 136 | 238 | 641 | 690 | 804 | 1250 |
| 2026-04-08 00:30 | 4.43 | 522 | 20700 (2002) | 30 (2011) | 698 | 56 | 72 | 124 | 136 | 238 | 641 | 690 | 804 | 1250 |
| 2026-04-07 23:30 | 4.45 | 533 | 20700 (2002) | 30 (2011) | 698 | 56 | 72 | 124 | 136 | 238 | 641 | 690 | 804 | 1250 |
| 2026-04-07 22:30 | 4.47 | 545 | 5120 (2018) | 31 (2011) | 501 | 59 | 80 | 135 | 148 | 242 | 633 | 877 | 1160 | 1830 |
| 2026-04-07 21:30 | 4.48 | 550 | 5120 (2018) | 31 (2011) | 501 | 59 | 80 | 135 | 148 | 242 | 633 | 877 | 1160 | 1830 |
| 2026-04-07 20:30 | 4.51 | 568 | 5120 (2018) | 31 (2011) | 501 | 59 | 80 | 135 | 148 | 242 | 633 | 877 | 1160 | 1830 |
| 2026-04-07 19:30 | 4.52 | 574 | 5120 (2018) | 31 (2011) | 501 | 59 | 80 | 135 | 148 | 242 | 633 | 877 | 1160 | 1830 |
| 2026-04-07 18:30 | 4.53 | 580 | 5120 (2018) | 31 (2011) | 501 | 59 | 80 | 135 | 148 | 242 | 633 | 877 | 1160 | 1830 |
| 2026-04-07 17:30 | 4.56 | 598 | 5120 (2018) | 31 (2011) | 501 | 59 | 80 | 135 | 148 | 242 | 633 | 877 | 1160 | 1830 |
| 2026-04-07 16:30 | 4.58 | 611 | 5120 (2018) | 31 (2011) | 501 | 59 | 80 | 135 | 148 | 242 | 633 | 877 | 1160 | 1830 |
| 2026-04-07 15:30 | 4.61 | 630 | 5120 (2018) | 31 (2011) | 501 | 59 | 80 | 135 | 148 | 242 | 633 | 877 | 1160 | 1830 |
| 2026-04-07 14:30 | 4.61 | 630 | 5120 (2018) | 31 (2011) | 501 | 59 | 80 | 135 | 148 | 242 | 633 | 877 | 1160 | 1830 |
| 2026-04-07 13:30 | 4.63 | 642 | 5120 (2018) | 31 (2011) | 501 | 59 | 80 | 135 | 148 | 242 | 633 | 877 | 1160 | 1830 |
| 2026-04-07 12:30 | 4.63 | 642 | 5120 (2018) | 31 (2011) | 501 | 59 | 80 | 135 | 148 | 242 | 633 | 877 | 1160 | 1830 |
| 2026-04-07 11:30 | 4.65 | 655 | 5120 (2018) | 31 (2011) | 501 | 59 | 80 | 135 | 148 | 242 | 633 | 877 | 1160 | 1830 |
| 2026-04-07 10:30 | 4.67 | 669 | 5120 (2018) | 31 (2011) | 501 | 59 | 80 | 135 | 148 | 242 | 633 | 877 | 1160 | 1830 |
| 2026-04-07 09:30 | 4.68 | 675 | 5120 (2018) | 31 (2011) | 501 | 59 | 80 | 135 | 148 | 242 | 633 | 877 | 1160 | 1830 |
| 2026-04-07 08:30 | 4.68 | 675 | 5120 (2018) | 31 (2011) | 501 | 59 | 80 | 135 | 148 | 242 | 633 | 877 | 1160 | 1830 |
| 2026-04-07 07:30 | 4.71 | 696 | 5120 (2018) | 31 (2011) | 501 | 59 | 80 | 135 | 148 | 242 | 633 | 877 | 1160 | 1830 |
| 2026-04-07 06:30 | 4.73 | 709 | 5120 (2018) | 31 (2011) | 501 | 59 | 80 | 135 | 148 | 242 | 633 | 877 | 1160 | 1830 |
| 2026-04-07 05:30 | 4.74 | 716 | 5120 (2018) | 31 (2011) | 501 | 59 | 80 | 135 | 148 | 242 | 633 | 877 | 1160 | 1830 |
| 2026-04-07 04:30 | 4.77 | 737 | 5120 (2018) | 31 (2011) | 501 | 59 | 80 | 135 | 148 | 242 | 633 | 877 | 1160 | 1830 |
| 2026-04-07 03:30 | 4.79 | 752 | 5120 (2018) | 31 (2011) | 501 | 59 | 80 | 135 | 148 | 242 | 633 | 877 | 1160 | 1830 |
| 2026-04-07 02:30 | 4.81 | 766 | 5120 (2018) | 31 (2011) | 501 | 59 | 80 | 135 | 148 | 242 | 633 | 877 | 1160 | 1830 |
| 2026-04-07 01:30 | 4.84 | 788 | 5120 (2018) | 31 (2011) | 501 | 59 | 80 | 135 | 148 | 242 | 633 | 877 | 1160 | 1830 |
| 2026-04-07 00:30 | 4.85 | 796 | 5120 (2018) | 31 (2011) | 501 | 59 | 80 | 135 | 148 | 242 | 633 | 877 | 1160 | 1830 |
| 2026-04-06 23:30 | 4.88 | 817 | 5120 (2018) | 31 (2011) | 501 | 59 | 80 | 135 | 148 | 242 | 633 | 877 | 1160 | 1830 |
| 2026-04-06 22:30 | 4.91 | 837 | 4680 (2025) | 32 (2011) | 571 | 63 | 83 | 145 | 153 | 265 | 575 | 906 | 1700 | 2200 |
| 2026-04-06 21:30 | 4.94 | 857 | 4680 (2025) | 32 (2011) | 571 | 63 | 83 | 145 | 153 | 265 | 575 | 906 | 1700 | 2200 |
| 2026-04-06 20:30 | 4.97 | 878 | 4680 (2025) | 32 (2011) | 571 | 63 | 83 | 145 | 153 | 265 | 575 | 906 | 1700 | 2200 |
| 2026-04-06 19:30 | 5.01 | 907 | 4680 (2025) | 32 (2011) | 571 | 63 | 83 | 145 | 153 | 265 | 575 | 906 | 1700 | 2200 |
| 2026-04-06 18:30 | 5.05 | 939 | 4680 (2025) | 32 (2011) | 571 | 63 | 83 | 145 | 153 | 265 | 575 | 906 | 1700 | 2200 |
| 2026-04-06 17:30 | 5.09 | 973 | 4680 (2025) | 32 (2011) | 571 | 63 | 83 | 145 | 153 | 265 | 575 | 906 | 1700 | 2200 |
| 2026-04-06 16:30 | 5.11 | 990 | 4680 (2025) | 32 (2011) | 571 | 63 | 83 | 145 | 153 | 265 | 575 | 906 | 1700 | 2200 |
| 2026-04-06 15:30 | 5.14 | 1020 | 4680 (2025) | 32 (2011) | 571 | 63 | 83 | 145 | 153 | 265 | 575 | 906 | 1700 | 2200 |
| 2026-04-06 14:30 | 5.18 | 1050 | 4680 (2025) | 32 (2011) | 571 | 63 | 83 | 145 | 153 | 265 | 575 | 906 | 1700 | 2200 |
| 2026-04-06 13:30 | 5.20 | 1070 | 4680 (2025) | 32 (2011) | 571 | 63 | 83 | 145 | 153 | 265 | 575 | 906 | 1700 | 2200 |
| 2026-04-06 12:30 | 5.23 | 1100 | 4680 (2025) | 32 (2011) | 571 | 63 | 83 | 145 | 153 | 265 | 575 | 906 | 1700 | 2200 |
| 2026-04-06 11:30 | 5.26 | 1120 | 4680 (2025) | 32 (2011) | 571 | 63 | 83 | 145 | 153 | 265 | 575 | 906 | 1700 | 2200 |
| 2026-04-06 10:30 | 5.29 | 1150 | 4680 (2025) | 32 (2011) | 571 | 63 | 83 | 145 | 153 | 265 | 575 | 906 | 1700 | 2200 |
| 2026-04-06 09:30 | 5.32 | 1180 | 4680 (2025) | 32 (2011) | 571 | 63 | 83 | 145 | 153 | 265 | 575 | 906 | 1700 | 2200 |
| 2026-04-06 08:30 | 5.36 | 1220 | 4680 (2025) | 32 (2011) | 571 | 63 | 83 | 145 | 153 | 265 | 575 | 906 | 1700 | 2200 |
| 2026-04-06 07:30 | 5.39 | 1250 | 4680 (2025) | 32 (2011) | 571 | 63 | 83 | 145 | 153 | 265 | 575 | 906 | 1700 | 2200 |
| 2026-04-06 06:30 | 5.44 | 1300 | 4680 (2025) | 32 (2011) | 571 | 63 | 83 | 145 | 153 | 265 | 575 | 906 | 1700 | 2200 |
| 2026-04-06 05:30 | 5.48 | 1340 | 4680 (2025) | 32 (2011) | 571 | 63 | 83 | 145 | 153 | 265 | 575 | 906 | 1700 | 2200 |
| 2026-04-06 04:30 | 5.52 | 1380 | 4680 (2025) | 32 (2011) | 571 | 63 | 83 | 145 | 153 | 265 | 575 | 906 | 1700 | 2200 |
| 2026-04-06 03:30 | 5.57 | 1430 | 4680 (2025) | 32 (2011) | 571 | 63 | 83 | 145 | 153 | 265 | 575 | 906 | 1700 | 2200 |
| 2026-04-06 02:30 | 5.62 | 1490 | 4680 (2025) | 32 (2011) | 571 | 63 | 83 | 145 | 153 | 265 | 575 | 906 | 1700 | 2200 |
| 2026-04-06 01:30 | 5.67 | 1540 | 4680 (2025) | 32 (2011) | 571 | 63 | 83 | 145 | 153 | 265 | 575 | 906 | 1700 | 2200 |
| 2026-04-06 00:30 | 5.73 | 1610 | 4680 (2025) | 32 (2011) | 571 | 63 | 83 | 145 | 153 | 265 | 575 | 906 | 1700 | 2200 |
| 2026-04-05 23:30 | 5.79 | 1670 | 4680 (2025) | 32 (2011) | 571 | 63 | 83 | 145 | 153 | 265 | 575 | 906 | 1700 | 2200 |
| 2026-04-05 22:30 | 5.85 | 1740 | 12300 (2025) | 33 (2011) | 887 | 69 | 90 | 112 | 158 | 288 | 502 | 769 | 2350 | 3530 |
| 2026-04-05 21:30 | 5.93 | 1840 | 12300 (2025) | 33 (2011) | 887 | 69 | 90 | 112 | 158 | 288 | 502 | 769 | 2350 | 3530 |
| 2026-04-05 20:30 | 6.00 | 1920 | 12300 (2025) | 33 (2011) | 887 | 69 | 90 | 112 | 158 | 288 | 502 | 769 | 2350 | 3530 |
| 2026-04-05 19:30 | 6.07 | 2010 | 12300 (2025) | 33 (2011) | 887 | 69 | 90 | 112 | 158 | 288 | 502 | 769 | 2350 | 3530 |
| 2026-04-05 18:30 | 6.13 | 2080 | 12300 (2025) | 33 (2011) | 887 | 69 | 90 | 112 | 158 | 288 | 502 | 769 | 2350 | 3530 |
| 2026-04-05 17:30 | 6.20 | 2170 | 12300 (2025) | 33 (2011) | 887 | 69 | 90 | 112 | 158 | 288 | 502 | 769 | 2350 | 3530 |
| 2026-04-05 16:30 | 6.27 | 2270 | 12300 (2025) | 33 (2011) | 887 | 69 | 90 | 112 | 158 | 288 | 502 | 769 | 2350 | 3530 |
| 2026-04-05 15:30 | 6.32 | 2330 | 12300 (2025) | 33 (2011) | 887 | 69 | 90 | 112 | 158 | 288 | 502 | 769 | 2350 | 3530 |
| 2026-04-05 14:30 | 6.42 | 2470 | 12300 (2025) | 33 (2011) | 887 | 69 | 90 | 112 | 158 | 288 | 502 | 769 | 2350 | 3530 |
| 2026-04-05 13:30 | 6.50 | 2580 | 12300 (2025) | 33 (2011) | 887 | 69 | 90 | 112 | 158 | 288 | 502 | 769 | 2350 | 3530 |
| 2026-04-05 12:30 | 6.59 | 2700 | 12300 (2025) | 33 (2011) | 887 | 69 | 90 | 112 | 158 | 288 | 502 | 769 | 2350 | 3530 |
| 2026-04-05 11:30 | 6.70 | 2850 | 12300 (2025) | 33 (2011) | 887 | 69 | 90 | 112 | 158 | 288 | 502 | 769 | 2350 | 3530 |
| 2026-04-05 10:30 | 6.81 | 3010 | 12300 (2025) | 33 (2011) | 887 | 69 | 90 | 112 | 158 | 288 | 502 | 769 | 2350 | 3530 |
| 2026-04-05 09:30 | 6.92 | 3170 | 12300 (2025) | 33 (2011) | 887 | 69 | 90 | 112 | 158 | 288 | 502 | 769 | 2350 | 3530 |
| 2026-04-05 08:30 | 7.03 | 3330 | 12300 (2025) | 33 (2011) | 887 | 69 | 90 | 112 | 158 | 288 | 502 | 769 | 2350 | 3530 |
| 2026-04-05 07:30 | 7.15 | 3510 | 12300 (2025) | 33 (2011) | 887 | 69 | 90 | 112 | 158 | 288 | 502 | 769 | 2350 | 3530 |
| 2026-04-05 06:30 | 7.33 | 3800 | 12300 (2025) | 33 (2011) | 887 | 69 | 90 | 112 | 158 | 288 | 502 | 769 | 2350 | 3530 |
| 2026-04-05 05:30 | 7.49 | 4070 | 12300 (2025) | 33 (2011) | 887 | 69 | 90 | 112 | 158 | 288 | 502 | 769 | 2350 | 3530 |
| 2026-04-05 04:30 | 7.70 | 4430 | 12300 (2025) | 33 (2011) | 887 | 69 | 90 | 112 | 158 | 288 | 502 | 769 | 2350 | 3530 |
| 2026-04-05 03:30 | 7.95 | 4880 | 12300 (2025) | 33 (2011) | 887 | 69 | 90 | 112 | 158 | 288 | 502 | 769 | 2350 | 3530 |
| 2026-04-05 02:30 | 8.24 | 5370 | 12300 (2025) | 33 (2011) | 887 | 69 | 90 | 112 | 158 | 288 | 502 | 769 | 2350 | 3530 |
| 2026-04-05 01:30 | 8.58 | 5970 | 12300 (2025) | 33 (2011) | 887 | 69 | 90 | 112 | 158 | 288 | 502 | 769 | 2350 | 3530 |
| 2026-04-05 00:30 | 8.96 | 6680 | 12300 (2025) | 33 (2011) | 887 | 69 | 90 | 112 | 158 | 288 | 502 | 769 | 2350 | 3530 |
| 2026-04-04 23:30 | 9.33 | 7400 | 12300 (2025) | 33 (2011) | 887 | 69 | 90 | 112 | 158 | 288 | 502 | 769 | 2350 | 3530 |
A total of 721 rows are displayed for years 1962 through 2025.